Darstellungsparameter: Aktuell verwendete Einstellungen:
Skalierung der Graphiken ... ?
xyx+y,   Skalierungsfaktor:      Skalierung: Modus: x, Faktor: 1
Darstellungszeitraum ... ?
Vom - - bis: - -   Zeitraum: 23.02.2019 - 01.03.2019
Min/Max/Avg-Anzeige ... ?
Zeige MMA aktuell
Zeige MMA Monat
Zeige MMA alles
Zeige --A aktuell
Zeige --A Monat
Zeige --A alles
Keine MMA-Anzeige
MMA:
Minimum Maximum Average (ber die Originaldaten)
MMA-Basis: 23.02.2019 - 01.03.2019
Quicknavigation für Darstellung... ?
Tage:      1T, 2T, 3T, 5T -1T -2T -3T -5T +1T +2T +3T +5T
Wochen: 1W, 2W, 3W -1W -2W -3W +1W +2W +3W
Monate: 1M, 3M, 6M -1M -3M -6M +1M +3M +6M
Jahre:    1J, 3J, 5J, 10J -1J -3J -5J -10J +1J +3J +5J +10J
Nutze für die Darstellung ... ?
Originaldaten oder Mittelwerte auf ...
Stundenbasis Tagesbasis Wochenbasis
Monatsbasis Jahresbasis      Datenbasis: Original-Daten
Darstellen als:
Statistik (Auto) Statistik J:M      Darstellung:
Zur Graphik,    zurück zur Übersicht aller Sensoren.
 
Tabellarische Datenbersicht: ?
 
Sensor: Nr:Datum:Temp:Feuchte:Taupunkt:
Aussen-T/F 1 23-02-2019 00:00:00 5.7 C 92 % 4.5 C
2 23-02-2019 00:05:00 5.7 C 92 % 4.5 C
3 23-02-2019 00:10:00 5.6 C 92 % 4.41 C
4 23-02-2019 00:15:00 5.4 C 92 % 4.21 C
5 23-02-2019 00:20:00 5.3 C 92 % 4.11 C
6 23-02-2019 00:25:00 5.3 C 92 % 4.11 C
7 23-02-2019 00:30:00 5.2 C 92 % 4.01 C
8 23-02-2019 00:35:00 5.2 C 92 % 4.01 C
9 23-02-2019 00:40:00 5.2 C 93 % 4.16 C
10 23-02-2019 00:45:00 5.1 C 93 % 4.06 C
11 23-02-2019 00:50:00 5.1 C 93 % 4.06 C
12 23-02-2019 00:55:00 5 C 93 % 3.96 C
13 23-02-2019 01:00:00 4.9 C 93 % 3.87 C
14 23-02-2019 01:05:00 4.8 C 93 % 3.77 C
15 23-02-2019 01:10:00 4.8 C 93 % 3.77 C
16 23-02-2019 01:15:00 4.7 C 93 % 3.67 C
17 23-02-2019 01:20:00 4.7 C 93 % 3.67 C
18 23-02-2019 01:25:00 4.6 C 93 % 3.57 C
19 23-02-2019 01:30:00 4.4 C 93 % 3.37 C
20 23-02-2019 01:35:00 4.4 C 93 % 3.37 C
21 23-02-2019 01:40:00 4.4 C 93 % 3.37 C
22 23-02-2019 01:45:00 4.3 C 94 % 3.42 C
23 23-02-2019 01:50:00 4.3 C 94 % 3.42 C
24 23-02-2019 01:55:00 4.3 C 94 % 3.42 C
25 23-02-2019 02:00:00 4.3 C 94 % 3.42 C
Sensor: Nr:Datum:Temp:Feuchte:Taupunkt:
Aussen-T/F 26 23-02-2019 02:05:00 4.3 C 94 % 3.42 C
27 23-02-2019 02:10:00 4.4 C 94 % 3.52 C
28 23-02-2019 02:15:00 4.4 C 94 % 3.52 C
29 23-02-2019 02:20:00 4.3 C 94 % 3.42 C
30 23-02-2019 02:25:00 4.3 C 94 % 3.42 C
31 23-02-2019 02:30:00 4.2 C 94 % 3.32 C
32 23-02-2019 02:35:00 4.1 C 94 % 3.22 C
33 23-02-2019 02:40:00 4 C 94 % 3.12 C
34 23-02-2019 02:45:00 4 C 94 % 3.12 C
35 23-02-2019 02:50:00 4 C 94 % 3.12 C
36 23-02-2019 02:55:00 3.9 C 94 % 3.02 C
37 23-02-2019 03:00:00 3.8 C 94 % 2.93 C
38 23-02-2019 03:05:00 3.8 C 95 % 3.07 C
39 23-02-2019 03:10:00 3.8 C 95 % 3.07 C
40 23-02-2019 03:15:00 3.8 C 95 % 3.07 C
41 23-02-2019 03:20:00 3.9 C 95 % 3.17 C
42 23-02-2019 03:25:00 3.8 C 95 % 3.07 C
43 23-02-2019 03:30:00 3.7 C 95 % 2.98 C
44 23-02-2019 03:35:00 3.7 C 95 % 2.98 C
45 23-02-2019 03:40:00 3.8 C 95 % 3.07 C
46 23-02-2019 03:45:00 3.8 C 95 % 3.07 C
47 23-02-2019 03:50:00 3.9 C 95 % 3.17 C
48 23-02-2019 03:55:00 4 C 95 % 3.27 C
49 23-02-2019 04:00:00 4.1 C 95 % 3.37 C
50 23-02-2019 04:05:00 4.2 C 95 % 3.47 C
Sensor: Nr:Datum:Temp:Feuchte:Taupunkt:
Aussen-T/F 51 23-02-2019 04:10:00 4.2 C 95 % 3.47 C
52 23-02-2019 04:15:00 4.3 C 95 % 3.57 C
53 23-02-2019 04:20:00 4.3 C 95 % 3.57 C
54 23-02-2019 04:25:00 4.3 C 95 % 3.57 C
55 23-02-2019 04:30:00 4.4 C 95 % 3.67 C
56 23-02-2019 04:35:00 4.3 C 95 % 3.57 C
57 23-02-2019 04:40:00 4.3 C 95 % 3.57 C
58 23-02-2019 04:45:00 4.3 C 95 % 3.57 C
59 23-02-2019 04:50:00 4.3 C 95 % 3.57 C
60 23-02-2019 04:55:00 4.2 C 95 % 3.47 C
61 23-02-2019 05:00:00 4.2 C 95 % 3.47 C
62 23-02-2019 05:05:00 4.2 C 95 % 3.47 C
63 23-02-2019 05:10:00 4.3 C 95 % 3.57 C
64 23-02-2019 05:15:00 4.3 C 95 % 3.57 C
65 23-02-2019 05:20:00 4.5 C 94 % 3.62 C
66 23-02-2019 05:25:00 4.6 C 94 % 3.72 C
67 23-02-2019 05:30:00 4.6 C 93 % 3.57 C
68 23-02-2019 05:35:00 4.7 C 93 % 3.67 C
69 23-02-2019 05:40:00 4.7 C 93 % 3.67 C
70 23-02-2019 05:45:00 4.7 C 92 % 3.51 C
71 23-02-2019 05:50:00 4.7 C 92 % 3.51 C
72 23-02-2019 05:55:00 4.8 C 91 % 3.46 C
73 23-02-2019 06:00:00 4.8 C 91 % 3.46 C
74 23-02-2019 06:05:00 4.8 C 91 % 3.46 C
75 23-02-2019 06:10:00 4.9 C 90 % 3.4 C
Sensor: Nr:Datum:Temp:Feuchte:Taupunkt:
Aussen-T/F 76 23-02-2019 06:15:00 4.8 C 91 % 3.46 C
77 23-02-2019 06:20:00 4.8 C 91 % 3.46 C
78 23-02-2019 06:25:00 4.8 C 89 % 3.14 C
79 23-02-2019 06:30:00 4.8 C 89 % 3.14 C
80 23-02-2019 06:35:00 4.8 C 89 % 3.14 C
81 23-02-2019 06:40:00 4.9 C 89 % 3.24 C
82 23-02-2019 06:45:00 4.9 C 90 % 3.4 C
83 23-02-2019 06:50:00 4.9 C 89 % 3.24 C
84 23-02-2019 06:55:00 4.8 C 89 % 3.14 C
85 23-02-2019 07:00:00 4.8 C 88 % 2.99 C
86 23-02-2019 07:05:00 4.8 C 88 % 2.99 C
87 23-02-2019 07:10:00 4.8 C 88 % 2.99 C
88 23-02-2019 07:15:00 4.7 C 87 % 2.73 C
89 23-02-2019 07:20:00 4.8 C 87 % 2.82 C
90 23-02-2019 07:25:00 4.8 C 87 % 2.82 C
91 23-02-2019 07:30:00 4.8 C 87 % 2.82 C
92 23-02-2019 07:35:00 4.8 C 86 % 2.66 C
93 23-02-2019 07:40:00 4.8 C 86 % 2.66 C
94 23-02-2019 07:45:00 4.8 C 87 % 2.82 C
95 23-02-2019 07:50:00 4.8 C 86 % 2.66 C
96 23-02-2019 07:55:00 4.8 C 86 % 2.66 C
97 23-02-2019 08:00:00 4.8 C 86 % 2.66 C
98 23-02-2019 08:05:00 4.8 C 87 % 2.82 C
99 23-02-2019 08:10:00 4.8 C 86 % 2.66 C
100 23-02-2019 08:15:00 4.8 C 85 % 2.5 C
Sensor: Nr:Datum:Temp:Feuchte:Taupunkt:
Aussen-T/F 101 23-02-2019 08:20:00 4.8 C 85 % 2.5 C
102 23-02-2019 08:25:00 4.8 C 85 % 2.5 C
103 23-02-2019 08:30:00 4.9 C 85 % 2.6 C
104 23-02-2019 08:35:00 4.9 C 85 % 2.6 C
105 23-02-2019 08:40:00 4.9 C 84 % 2.43 C
106 23-02-2019 08:45:00 4.9 C 84 % 2.43 C
107 23-02-2019 08:50:00 4.9 C 84 % 2.43 C
108 23-02-2019 08:55:00 4.9 C 84 % 2.43 C
109 23-02-2019 09:00:00 4.9 C 84 % 2.43 C
110 23-02-2019 09:05:00 4.9 C 83 % 2.26 C
111 23-02-2019 09:10:00 4.8 C 83 % 2.16 C
112 23-02-2019 09:15:00 4.8 C 83 % 2.16 C
113 23-02-2019 09:20:00 4.8 C 84 % 2.33 C
114 23-02-2019 09:25:00 4.8 C 84 % 2.33 C
115 23-02-2019 09:30:00 4.8 C 84 % 2.33 C
116 23-02-2019 09:35:00 4.7 C 84 % 2.23 C
117 23-02-2019 09:40:00 4.7 C 83 % 2.07 C
118 23-02-2019 09:45:00 4.7 C 83 % 2.07 C
119 23-02-2019 09:50:00 4.7 C 83 % 2.07 C
120 23-02-2019 09:55:00 4.7 C 83 % 2.07 C
121 23-02-2019 10:00:00 4.7 C 83 % 2.07 C
122 23-02-2019 10:05:00 4.7 C 83 % 2.07 C
123 23-02-2019 10:10:00 4.7 C 83 % 2.07 C
124 23-02-2019 10:15:00 4.8 C 83 % 2.16 C
125 23-02-2019 10:20:00 4.8 C 82 % 1.99 C
Sensor: Nr:Datum:Temp:Feuchte:Taupunkt:
Aussen-T/F 126 23-02-2019 10:25:00 4.8 C 82 % 1.99 C
127 23-02-2019 10:30:00 4.9 C 82 % 2.09 C
128 23-02-2019 10:35:00 5 C 81 % 2.02 C
129 23-02-2019 10:40:00 5.1 C 81 % 2.12 C
130 23-02-2019 10:45:00 5.2 C 81 % 2.21 C
131 23-02-2019 10:50:00 5.3 C 81 % 2.31 C
132 23-02-2019 10:55:00 5.4 C 80 % 2.23 C
133 23-02-2019 11:00:00 5.4 C 81 % 2.41 C
134 23-02-2019 11:05:00 5.6 C 81 % 2.6 C
135 23-02-2019 11:10:00 5.7 C 80 % 2.53 C
136 23-02-2019 11:15:00 5.8 C 80 % 2.62 C
137 23-02-2019 11:20:00 5.9 C 80 % 2.72 C
138 23-02-2019 11:25:00 6.1 C 80 % 2.92 C
139 23-02-2019 11:30:00 6.2 C 79 % 2.84 C
140 23-02-2019 11:35:00 6.3 C 79 % 2.93 C
141 23-02-2019 11:40:00 6.4 C 78 % 2.85 C
142 23-02-2019 11:45:00 6.6 C 77 % 2.86 C
143 23-02-2019 11:50:00 6.7 C 77 % 2.96 C
144 23-02-2019 11:55:00 6.8 C 76 % 2.87 C
145 23-02-2019 12:00:00 6.9 C 76 % 2.97 C
146 23-02-2019 12:05:00 7.1 C 75 % 2.98 C
147 23-02-2019 12:10:00 7.2 C 74 % 2.89 C
148 23-02-2019 12:15:00 7.3 C 74 % 2.98 C
149 23-02-2019 12:20:00 7.5 C 73 % 2.98 C
150 23-02-2019 12:25:00 7.7 C 72 % 2.98 C
Sensor: Nr:Datum:Temp:Feuchte:Taupunkt:
Aussen-T/F 151 23-02-2019 12:30:00 7.8 C 71 % 2.88 C
152 23-02-2019 12:35:00 7.8 C 71 % 2.88 C
153 23-02-2019 12:40:00 7.9 C 70 % 2.78 C
154 23-02-2019 12:45:00 8 C 71 % 3.07 C
155 23-02-2019 12:50:00 8.1 C 70 % 2.97 C
156 23-02-2019 12:55:00 8.2 C 71 % 3.26 C
157 23-02-2019 13:00:00 8.3 C 69 % 2.96 C
158 23-02-2019 13:05:00 8.4 C 68 % 2.85 C
159 23-02-2019 13:10:00 8.4 C 69 % 3.05 C
160 23-02-2019 13:15:00 8.7 C 68 % 3.13 C
161 23-02-2019 13:20:00 8.9 C 68 % 3.32 C
162 23-02-2019 13:25:00 9.1 C 67 % 3.31 C
163 23-02-2019 13:30:00 9.3 C 66 % 3.28 C
164 23-02-2019 13:35:00 9.3 C 66 % 3.28 C
165 23-02-2019 13:40:00 9.4 C 67 % 3.59 C
166 23-02-2019 13:45:00 9.6 C 65 % 3.35 C
167 23-02-2019 13:50:00 9.6 C 65 % 3.35 C
168 23-02-2019 13:55:00 9.7 C 64 % 3.23 C
169 23-02-2019 14:00:00 9.7 C 64 % 3.23 C
170 23-02-2019 14:05:00 9.7 C 63 % 3.01 C
171 23-02-2019 14:10:00 9.7 C 64 % 3.23 C
172 23-02-2019 14:15:00 9.8 C 63 % 3.1 C
173 23-02-2019 14:20:00 9.8 C 62 % 2.88 C
174 23-02-2019 14:25:00 9.9 C 62 % 2.97 C
175 23-02-2019 14:30:00 10 C 61 % 2.84 C
Sensor: Nr:Datum:Temp:Feuchte:Taupunkt:
Aussen-T/F 176 23-02-2019 14:35:00 10.1 C 60 % 2.7 C
177 23-02-2019 14:40:00 10.2 C 59 % 2.56 C
178 23-02-2019 14:45:00 10.3 C 54 % 1.41 C
179 23-02-2019 14:50:00 10.4 C 52 % 0.98 C
180 23-02-2019 14:55:00 10.6 C 49 % 0.35 C
181 23-02-2019 15:00:00 10.6 C 47 % -0.23 C
182 23-02-2019 15:05:00 10.7 C 46 % -0.43 C
183 23-02-2019 15:10:00 10.8 C 48 % 0.24 C
184 23-02-2019 15:15:00 10.8 C 46 % -0.34 C
185 23-02-2019 15:20:00 10.8 C 46 % -0.34 C
186 23-02-2019 15:25:00 10.8 C 46 % -0.34 C
187 23-02-2019 15:30:00 10.8 C 45 % -0.64 C
188 23-02-2019 15:35:00 10.8 C 42 % -1.58 C
189 23-02-2019 15:40:00 10.8 C 42 % -1.58 C
190 23-02-2019 15:45:00 10.8 C 43 % -1.26 C
191 23-02-2019 15:50:00 10.8 C 42 % -1.58 C
192 23-02-2019 15:55:00 10.9 C 44 % -0.86 C
193 23-02-2019 16:00:00 10.9 C 43 % -1.17 C
194 23-02-2019 16:05:00 10.9 C 43 % -1.17 C
195 23-02-2019 16:10:00 11.1 C 46 % -0.07 C
196 23-02-2019 16:15:00 11.1 C 52 % 1.63 C
197 23-02-2019 16:20:00 11 C 43 % -1.08 C
198 23-02-2019 16:25:00 10.9 C 42 % -1.49 C
199 23-02-2019 16:30:00 10.8 C 44 % -0.95 C
200 23-02-2019 16:35:00 10.8 C 47 % -0.04 C
Sensor: Nr:Datum:Temp:Feuchte:Taupunkt:
Aussen-T/F 201 23-02-2019 16:40:00 10.6 C 46 % -0.52 C
202 23-02-2019 16:45:00 10.4 C 52 % 0.98 C
203 23-02-2019 16:50:00 10.2 C 53 % 1.06 C
204 23-02-2019 16:55:00 9.9 C 54 % 1.04 C
205 23-02-2019 17:00:00 9.6 C 56 % 1.27 C
206 23-02-2019 17:05:00 9.3 C 59 % 1.71 C
207 23-02-2019 17:10:00 8.9 C 61 % 1.8 C
208 23-02-2019 17:15:00 8.7 C 62 % 1.84 C
209 23-02-2019 17:20:00 8.3 C 62 % 1.46 C
210 23-02-2019 17:25:00 8 C 64 % 1.62 C
211 23-02-2019 17:30:00 7.8 C 64 % 1.43 C
212 23-02-2019 17:35:00 7.5 C 65 % 1.36 C
213 23-02-2019 17:40:00 7.3 C 65 % 1.17 C
214 23-02-2019 17:45:00 7.1 C 66 % 1.19 C
215 23-02-2019 17:50:00 6.8 C 67 % 1.11 C
216 23-02-2019 17:55:00 6.6 C 67 % 0.92 C
217 23-02-2019 18:00:00 6.4 C 69 % 1.14 C
218 23-02-2019 18:05:00 6.2 C 70 % 1.15 C
219 23-02-2019 18:10:00 5.9 C 70 % 0.86 C
220 23-02-2019 18:15:00 5.7 C 70 % 0.67 C
221 23-02-2019 18:20:00 5.6 C 71 % 0.77 C
222 23-02-2019 18:25:00 5.4 C 71 % 0.58 C
223 23-02-2019 18:30:00 5.3 C 71 % 0.48 C
224 23-02-2019 18:35:00 5.2 C 71 % 0.38 C
225 23-02-2019 18:40:00 5.1 C 72 % 0.48 C
Sensor: Nr:Datum:Temp:Feuchte:Taupunkt:
Aussen-T/F 226 23-02-2019 18:45:00 5 C 72 % 0.38 C
227 23-02-2019 18:50:00 4.9 C 72 % 0.29 C
228 23-02-2019 18:55:00 4.8 C 72 % 0.19 C
229 23-02-2019 19:00:00 4.7 C 73 % 0.28 C
230 23-02-2019 19:05:00 4.7 C 73 % 0.28 C
231 23-02-2019 19:10:00 4.6 C 73 % 0.19 C
232 23-02-2019 19:15:00 4.6 C 74 % 0.38 C
233 23-02-2019 19:20:00 4.5 C 74 % 0.28 C
234 23-02-2019 19:25:00 4.4 C 73 % 0 C
235 23-02-2019 19:30:00 4.3 C 74 % 0.09 C
236 23-02-2019 19:35:00 4.3 C 75 % 0.27 C
237 23-02-2019 19:40:00 4.2 C 75 % 0.17 C
238 23-02-2019 19:45:00 4.1 C 74 % -0.11 C
239 23-02-2019 19:50:00 4.1 C 75 % 0.08 C
240 23-02-2019 19:55:00 3.9 C 75 % -0.12 C
241 23-02-2019 20:00:00 3.9 C 75 % -0.12 C
242 23-02-2019 20:05:00 3.8 C 75 % -0.21 C
243 23-02-2019 20:10:00 3.7 C 75 % -0.31 C
244 23-02-2019 20:15:00 3.7 C 75 % -0.31 C
245 23-02-2019 20:20:00 3.6 C 75 % -0.41 C
246 23-02-2019 20:25:00 3.5 C 76 % -0.32 C
247 23-02-2019 20:30:00 3.4 C 76 % -0.42 C
248 23-02-2019 20:35:00 3.3 C 77 % -0.34 C
249 23-02-2019 20:40:00 3.2 C 77 % -0.43 C
250 23-02-2019 20:45:00 3 C 77 % -0.63 C
Sensor: Nr:Datum:Temp:Feuchte:Taupunkt:
Aussen-T/F 251 23-02-2019 20:50:00 2.8 C 77 % -0.82 C
252 23-02-2019 20:55:00 2.7 C 78 % -0.74 C
253 23-02-2019 21:00:00 2.6 C 78 % -0.84 C
254 23-02-2019 21:05:00 2.4 C 79 % -0.86 C
255 23-02-2019 21:10:00 2.3 C 78 % -1.13 C
256 23-02-2019 21:15:00 2.2 C 78 % -1.23 C
257 23-02-2019 21:20:00 2.2 C 79 % -1.05 C
258 23-02-2019 21:25:00 2.1 C 79 % -1.15 C
259 23-02-2019 21:30:00 2.1 C 80 % -0.98 C
260 23-02-2019 21:35:00 2 C 79 % -1.25 C
261 23-02-2019 21:40:00 1.8 C 80 % -1.27 C
262 23-02-2019 21:45:00 1.7 C 80 % -1.37 C
263 23-02-2019 21:50:00 1.6 C 81 % -1.3 C
264 23-02-2019 21:55:00 1.4 C 81 % -1.49 C
265 23-02-2019 22:00:00 1.3 C 81 % -1.59 C
266 23-02-2019 22:05:00 1.2 C 82 % -1.52 C
267 23-02-2019 22:10:00 1.2 C 82 % -1.52 C
268 23-02-2019 22:15:00 1.1 C 83 % -1.46 C
269 23-02-2019 22:20:00 1.1 C 84 % -1.29 C
270 23-02-2019 22:25:00 1.1 C 84 % -1.29 C
271 23-02-2019 22:30:00 1.1 C 83 % -1.46 C
272 23-02-2019 22:35:00 0.9 C 83 % -1.65 C
273 23-02-2019 22:40:00 0.8 C 83 % -1.75 C
274 23-02-2019 22:45:00 0.7 C 83 % -1.85 C
275 23-02-2019 22:50:00 0.7 C 83 % -1.85 C
Sensor: Nr:Datum:Temp:Feuchte:Taupunkt:
Aussen-T/F 276 23-02-2019 22:55:00 0.6 C 83 % -1.95 C
277 23-02-2019 23:00:00 0.6 C 84 % -1.78 C
278 23-02-2019 23:05:00 0.6 C 84 % -1.78 C
279 23-02-2019 23:10:00 0.5 C 83 % -2.04 C
280 23-02-2019 23:15:00 0.4 C 83 % -2.14 C
281 23-02-2019 23:20:00 0.4 C 84 % -1.98 C
282 23-02-2019 23:25:00 0.5 C 83 % -2.04 C
283 23-02-2019 23:30:00 0.4 C 83 % -2.14 C
284 23-02-2019 23:35:00 0.5 C 83 % -2.04 C
285 23-02-2019 23:40:00 0.4 C 83 % -2.14 C
286 23-02-2019 23:45:00 0.4 C 84 % -1.98 C
287 23-02-2019 23:50:00 0.4 C 84 % -1.98 C
288 23-02-2019 23:55:00 0.4 C 84 % -1.98 C
289 24-02-2019 00:00:00 0.2 C 84 % -2.18 C
290 24-02-2019 00:05:00 0.1 C 84 % -2.27 C
291 24-02-2019 00:10:00 -0.1 C 84 % -2.47 C
292 24-02-2019 00:15:00 -0.2 C 85 % -2.41 C
293 24-02-2019 00:20:00 -0.3 C 85 % -2.51 C
294 24-02-2019 00:25:00 -0.3 C 85 % -2.51 C
295 24-02-2019 00:30:00 -0.3 C 86 % -2.35 C
296 24-02-2019 00:35:00 -0.3 C 86 % -2.35 C
297 24-02-2019 00:40:00 -0.4 C 86 % -2.45 C
298 24-02-2019 00:45:00 -0.4 C 86 % -2.45 C
299 24-02-2019 00:50:00 -0.5 C 87 % -2.39 C
300 24-02-2019 00:55:00 -0.6 C 87 % -2.49 C
Sensor: Nr:Datum:Temp:Feuchte:Taupunkt:
Aussen-T/F 301 24-02-2019 01:00:00 -0.6 C 87 % -2.49 C
302 24-02-2019 01:05:00 -0.6 C 87 % -2.49 C
303 24-02-2019 01:10:00 -0.6 C 87 % -2.49 C
304 24-02-2019 01:15:00 -0.6 C 87 % -2.49 C
305 24-02-2019 01:20:00 -0.6 C 87 % -2.49 C
306 24-02-2019 01:25:00 -0.6 C 87 % -2.49 C
307 24-02-2019 01:30:00 -0.7 C 87 % -2.59 C
308 24-02-2019 01:35:00 -0.7 C 87 % -2.59 C
309 24-02-2019 01:40:00 -0.7 C 87 % -2.59 C
310 24-02-2019 01:45:00 -0.7 C 87 % -2.59 C
311 24-02-2019 01:50:00 -0.8 C 87 % -2.69 C
312 24-02-2019 01:55:00 -0.8 C 87 % -2.69 C
313 24-02-2019 02:00:00 -0.9 C 87 % -2.79 C
314 24-02-2019 02:05:00 -1 C 87 % -2.88 C
315 24-02-2019 02:10:00 -1.1 C 88 % -2.83 C
316 24-02-2019 02:15:00 -1.1 C 88 % -2.83 C
317 24-02-2019 02:20:00 -1.1 C 88 % -2.83 C
318 24-02-2019 02:25:00 -1.2 C 88 % -2.93 C
319 24-02-2019 02:30:00 -1.2 C 88 % -2.93 C
320 24-02-2019 02:35:00 -1.2 C 88 % -2.93 C
321 24-02-2019 02:40:00 -1.3 C 88 % -3.03 C
322 24-02-2019 02:45:00 -1.3 C 88 % -3.03 C
323 24-02-2019 02:50:00 -1.3 C 88 % -3.03 C
324 24-02-2019 02:55:00 -1.3 C 89 % -2.88 C
325 24-02-2019 03:00:00 -1.3 C 89 % -2.88 C
Sensor: Nr:Datum:Temp:Feuchte:Taupunkt:
Aussen-T/F 326 24-02-2019 03:05:00 -1.4 C 89 % -2.97 C
327 24-02-2019 03:10:00 -1.4 C 89 % -2.97 C
328 24-02-2019 03:15:00 -1.4 C 89 % -2.97 C
329 24-02-2019 03:20:00 -1.4 C 89 % -2.97 C
330 24-02-2019 03:25:00 -1.5 C 89 % -3.07 C
331 24-02-2019 03:30:00 -1.5 C 89 % -3.07 C
332 24-02-2019 03:35:00 -1.6 C 89 % -3.17 C
333 24-02-2019 03:40:00 -1.6 C 89 % -3.17 C
334 24-02-2019 03:45:00 -1.6 C 89 % -3.17 C
335 24-02-2019 03:50:00 -1.6 C 90 % -3.02 C
336 24-02-2019 03:55:00 -1.7 C 90 % -3.12 C
337 24-02-2019 04:00:00 -1.7 C 90 % -3.12 C
338 24-02-2019 04:05:00 -1.7 C 90 % -3.12 C
339 24-02-2019 04:10:00 -1.7 C 90 % -3.12 C
340 24-02-2019 04:15:00 -1.6 C 90 % -3.02 C
341 24-02-2019 04:20:00 -1.7 C 90 % -3.12 C
342 24-02-2019 04:25:00 -1.7 C 90 % -3.12 C
343 24-02-2019 04:30:00 -1.7 C 90 % -3.12 C
344 24-02-2019 04:35:00 -1.8 C 90 % -3.22 C
345 24-02-2019 04:40:00 -1.8 C 90 % -3.22 C
346 24-02-2019 04:45:00 -1.8 C 90 % -3.22 C
347 24-02-2019 04:50:00 -1.8 C 90 % -3.22 C
348 24-02-2019 04:55:00 -1.8 C 90 % -3.22 C
349 24-02-2019 05:00:00 -1.8 C 90 % -3.22 C
350 24-02-2019 05:05:00 -1.8 C 90 % -3.22 C
Sensor: Nr:Datum:Temp:Feuchte:Taupunkt:
Aussen-T/F 351 24-02-2019 05:10:00 -1.8 C 90 % -3.22 C
352 24-02-2019 05:15:00 -1.8 C 90 % -3.22 C
353 24-02-2019 05:20:00 -1.8 C 90 % -3.22 C
354 24-02-2019 05:25:00 -1.9 C 90 % -3.32 C
355 24-02-2019 05:30:00 -1.9 C 90 % -3.32 C
356 24-02-2019 05:35:00 -1.9 C 90 % -3.32 C
357 24-02-2019 05:40:00 -2 C 90 % -3.42 C
358 24-02-2019 05:45:00 -2 C 90 % -3.42 C
359 24-02-2019 05:50:00 -1.9 C 90 % -3.32 C
360 24-02-2019 05:55:00 -1.9 C 90 % -3.32 C
361 24-02-2019 06:00:00 -1.9 C 90 % -3.32 C
362 24-02-2019 06:05:00 -1.9 C 90 % -3.32 C
363 24-02-2019 06:10:00 -2 C 90 % -3.42 C
364 24-02-2019 06:15:00 -2 C 90 % -3.42 C
365 24-02-2019 06:20:00 -2.1 C 90 % -3.52 C
366 24-02-2019 06:25:00 -2.1 C 90 % -3.52 C
367 24-02-2019 06:30:00 -2.1 C 91 % -3.37 C
368 24-02-2019 06:35:00 -2.1 C 91 % -3.37 C
369 24-02-2019 06:40:00 -2.1 C 91 % -3.37 C
370 24-02-2019 06:45:00 -2.1 C 91 % -3.37 C
371 24-02-2019 06:50:00 -2.2 C 91 % -3.47 C
372 24-02-2019 06:55:00 -2.2 C 91 % -3.47 C
373 24-02-2019 07:00:00 -2.2 C 91 % -3.47 C
374 24-02-2019 07:05:00 -2.3 C 91 % -3.57 C
375 24-02-2019 07:10:00 -2.3 C 91 % -3.57 C
Sensor: Nr:Datum:Temp:Feuchte:Taupunkt:
Aussen-T/F 376 24-02-2019 07:15:00 -2.3 C 91 % -3.57 C
377 24-02-2019 07:20:00 -2.4 C 91 % -3.66 C
378 24-02-2019 07:25:00 -2.4 C 91 % -3.66 C
379 24-02-2019 07:30:00 -2.4 C 91 % -3.66 C
380 24-02-2019 07:35:00 -2.4 C 91 % -3.66 C
381 24-02-2019 07:40:00 -2.4 C 91 % -3.66 C
382 24-02-2019 07:45:00 -2.4 C 92 % -3.52 C
383 24-02-2019 07:50:00 -2.4 C 92 % -3.52 C
384 24-02-2019 07:55:00 -2.4 C 92 % -3.52 C
385 24-02-2019 08:00:00 -2.3 C 92 % -3.42 C
386 24-02-2019 08:05:00 -2.3 C 92 % -3.42 C
387 24-02-2019 08:10:00 -2.2 C 92 % -3.32 C
388 24-02-2019 08:15:00 -2.2 C 92 % -3.32 C
389 24-02-2019 08:20:00 -2.2 C 92 % -3.32 C
390 24-02-2019 08:25:00 -2.1 C 92 % -3.22 C
391 24-02-2019 08:30:00 -2.1 C 92 % -3.22 C
392 24-02-2019 08:35:00 -2 C 92 % -3.12 C
393 24-02-2019 08:40:00 -2 C 92 % -3.12 C
394 24-02-2019 08:45:00 -2 C 92 % -3.12 C
395 24-02-2019 08:50:00 -2 C 92 % -3.12 C
396 24-02-2019 08:55:00 -1.9 C 92 % -3.02 C
397 24-02-2019 09:00:00 -1.9 C 92 % -3.02 C
398 24-02-2019 09:05:00 -1.8 C 92 % -2.92 C
399 24-02-2019 09:10:00 -1.8 C 92 % -2.92 C
400 24-02-2019 09:15:00 -1.7 C 92 % -2.83 C
Sensor: Nr:Datum:Temp:Feuchte:Taupunkt:
Aussen-T/F 401 24-02-2019 09:20:00 -1.6 C 92 % -2.73 C
402 24-02-2019 09:25:00 -1.6 C 92 % -2.73 C
403 24-02-2019 09:30:00 -1.5 C 92 % -2.63 C
404 24-02-2019 09:35:00 -1.4 C 92 % -2.53 C
405 24-02-2019 09:40:00 -1.3 C 92 % -2.43 C
406 24-02-2019 09:45:00 -1.2 C 92 % -2.33 C
407 24-02-2019 09:50:00 -1.1 C 92 % -2.23 C
408 24-02-2019 09:55:00 -1 C 91 % -2.28 C
409 24-02-2019 10:00:00 -0.9 C 91 % -2.18 C
410 24-02-2019 10:05:00 -0.8 C 91 % -2.08 C
411 24-02-2019 10:10:00 -0.6 C 90 % -2.03 C
412 24-02-2019 10:15:00 -0.4 C 90 % -1.84 C
413 24-02-2019 10:20:00 -0.2 C 90 % -1.64 C
414 24-02-2019 10:25:00 0 C 89 % -1.59 C
415 24-02-2019 10:30:00 0.3 C 89 % -1.29 C
416 24-02-2019 10:35:00 0.7 C 88 % -1.05 C
417 24-02-2019 10:40:00 1 C 88 % -0.76 C
418 24-02-2019 10:45:00 1.4 C 87 % -0.52 C
419 24-02-2019 10:50:00 1.7 C 86 % -0.38 C
420 24-02-2019 10:55:00 2.2 C 85 % -0.05 C
421 24-02-2019 11:00:00 2.6 C 83 % 0.01 C
422 24-02-2019 11:05:00 2.9 C 82 % 0.14 C
423 24-02-2019 11:10:00 3.2 C 82 % 0.43 C
424 24-02-2019 11:15:00 3.4 C 81 % 0.46 C
425 24-02-2019 11:20:00 3.7 C 80 % 0.58 C
Sensor: Nr:Datum:Temp:Feuchte:Taupunkt:
Aussen-T/F 426 24-02-2019 11:25:00 3.9 C 79 % 0.6 C
427 24-02-2019 11:30:00 4.2 C 76 % 0.36 C
428 24-02-2019 11:35:00 4.6 C 75 % 0.56 C
429 24-02-2019 11:40:00 4.8 C 76 % 0.94 C
430 24-02-2019 11:45:00 5.1 C 74 % 0.86 C
431 24-02-2019 11:50:00 5.3 C 74 % 1.05 C
432 24-02-2019 11:55:00 5.4 C 73 % 0.96 C
433 24-02-2019 12:00:00 5.6 C 73 % 1.15 C
434 24-02-2019 12:05:00 5.7 C 72 % 1.06 C
435 24-02-2019 12:10:00 5.9 C 72 % 1.25 C
436 24-02-2019 12:15:00 6.3 C 70 % 1.24 C
437 24-02-2019 12:20:00 6.6 C 69 % 1.33 C
438 24-02-2019 12:25:00 6.9 C 68 % 1.41 C
439 24-02-2019 12:30:00 7.4 C 67 % 1.69 C
440 24-02-2019 12:35:00 8.1 C 66 % 2.14 C
441 24-02-2019 12:40:00 8.6 C 63 % 1.97 C
442 24-02-2019 12:45:00 8.8 C 58 % 1 C
443 24-02-2019 12:50:00 9.1 C 58 % 1.29 C
444 24-02-2019 12:55:00 9.2 C 57 % 1.14 C
445 24-02-2019 13:00:00 9.2 C 55 % 0.64 C
446 24-02-2019 13:05:00 9.3 C 49 % -0.85 C
447 24-02-2019 13:10:00 9.4 C 48 % -1.04 C
448 24-02-2019 13:15:00 9.7 C 46 % -1.34 C
449 24-02-2019 13:20:00 9.9 C 42 % -2.39 C
450 24-02-2019 13:25:00 10.3 C 45 % -1.1 C
Sensor: Nr:Datum:Temp:Feuchte:Taupunkt:
Aussen-T/F 451 24-02-2019 13:30:00 10.6 C 44 % -1.13 C
452 24-02-2019 13:35:00 10.9 C 44 % -0.86 C
453 24-02-2019 13:40:00 11.2 C 40 % -1.88 C
454 24-02-2019 13:45:00 11.4 C 40 % -1.7 C
455 24-02-2019 13:50:00 11.7 C 40 % -1.43 C
456 24-02-2019 13:55:00 11.9 C 37 % -2.31 C
457 24-02-2019 14:00:00 11.9 C 35 % -3.05 C
458 24-02-2019 14:05:00 11.9 C 36 % -2.68 C
459 24-02-2019 14:10:00 11.9 C 36 % -2.68 C
460 24-02-2019 14:15:00 11.9 C 36 % -2.68 C
461 24-02-2019 14:20:00 11.9 C 38 % -1.95 C
462 24-02-2019 14:25:00 11.8 C 37 % -2.4 C
463 24-02-2019 14:30:00 11.8 C 37 % -2.4 C
464 24-02-2019 14:35:00 11.8 C 38 % -2.04 C
465 24-02-2019 14:40:00 11.8 C 40 % -1.34 C
466 24-02-2019 14:45:00 11.9 C 36 % -2.68 C
467 24-02-2019 14:50:00 12 C 35 % -2.97 C
468 24-02-2019 14:55:00 12.1 C 34 % -3.27 C
469 24-02-2019 15:00:00 12.2 C 36 % -2.41 C
470 24-02-2019 15:05:00 12.3 C 35 % -2.7 C
471 24-02-2019 15:10:00 12.4 C 35 % -2.61 C
472 24-02-2019 15:15:00 12.4 C 35 % -2.61 C
473 24-02-2019 15:20:00 12.5 C 34 % -2.91 C
474 24-02-2019 15:25:00 12.6 C 36 % -2.06 C
475 24-02-2019 15:30:00 12.6 C 39 % -0.97 C
Sensor: Nr:Datum:Temp:Feuchte:Taupunkt:
Aussen-T/F 476 24-02-2019 15:35:00 12.6 C 44 % 0.69 C
477 24-02-2019 15:40:00 12.4 C 42 % -0.14 C
478 24-02-2019 15:45:00 12.4 C 44 % 0.5 C
479 24-02-2019 15:50:00 12.3 C 44 % 0.41 C
480 24-02-2019 15:55:00 12.3 C 44 % 0.41 C
481 24-02-2019 16:00:00 12.3 C 45 % 0.72 C
482 24-02-2019 16:05:00 12.2 C 46 % 0.94 C
483 24-02-2019 16:10:00 12.3 C 41 % -0.56 C
484 24-02-2019 16:15:00 12.4 C 44 % 0.5 C
485 24-02-2019 16:20:00 12.3 C 45 % 0.72 C
486 24-02-2019 16:25:00 12.2 C 44 % 0.32 C
487 24-02-2019 16:30:00 11.9 C 46 % 0.66 C
488 24-02-2019 16:35:00 11.6 C 47 % 0.69 C
489 24-02-2019 16:40:00 11.3 C 48 % 0.7 C
490 24-02-2019 16:45:00 11.2 C 50 % 1.18 C
491 24-02-2019 16:50:00 11.1 C 51 % 1.36 C
492 24-02-2019 16:55:00 10.9 C 51 % 1.17 C
493 24-02-2019 17:00:00 10.8 C 52 % 1.35 C
494 24-02-2019 17:05:00 10.7 C 52 % 1.26 C
495 24-02-2019 17:10:00 10.7 C 52 % 1.26 C
496 24-02-2019 17:15:00 10.5 C 52 % 1.07 C
497 24-02-2019 17:20:00 10.4 C 52 % 0.98 C
498 24-02-2019 17:25:00 10.3 C 52 % 0.89 C
499 24-02-2019 17:30:00 10.3 C 52 % 0.89 C
500 24-02-2019 17:35:00 10.3 C 52 % 0.89 C
Sensor: Nr:Datum:Temp:Feuchte:Taupunkt:
Aussen-T/F 501 24-02-2019 17:40:00 10.2 C 53 % 1.06 C
502 24-02-2019 17:45:00 10 C 53 % 0.87 C
503 24-02-2019 17:50:00 9.8 C 53 % 0.69 C
504 24-02-2019 17:55:00 9.6 C 54 % 0.76 C
505 24-02-2019 18:00:00 9.3 C 55 % 0.74 C
506 24-02-2019 18:05:00 9.1 C 56 % 0.8 C
507 24-02-2019 18:10:00 8.8 C 56 % 0.52 C
508 24-02-2019 18:15:00 8.7 C 56 % 0.43 C
509 24-02-2019 18:20:00 8.6 C 56 % 0.33 C
510 24-02-2019 18:25:00 8.4 C 56 % 0.15 C
511 24-02-2019 18:30:00 8.4 C 57 % 0.39 C
512 24-02-2019 18:35:00 8.3 C 56 % 0.05 C
513 24-02-2019 18:40:00 8.2 C 57 % 0.2 C
514 24-02-2019 18:45:00 8 C 58 % 0.25 C
515 24-02-2019 18:50:00 7.8 C 59 % 0.3 C
516 24-02-2019 18:55:00 7.7 C 58 % -0.03 C
517 24-02-2019 19:00:00 7.6 C 59 % 0.11 C
518 24-02-2019 19:05:00 7.4 C 59 % -0.07 C
519 24-02-2019 19:10:00 7.2 C 60 % -0.03 C
520 24-02-2019 19:15:00 7.2 C 60 % -0.03 C
521 24-02-2019 19:20:00 7.1 C 59 % -0.36 C
522 24-02-2019 19:25:00 7 C 62 % 0.23 C
523 24-02-2019 19:30:00 6.8 C 61 % -0.18 C
524 24-02-2019 19:35:00 6.7 C 61 % -0.28 C
525 24-02-2019 19:40:00 6.6 C 62 % -0.15 C
Sensor: Nr:Datum:Temp:Feuchte:Taupunkt:
Aussen-T/F 526 24-02-2019 19:45:00 6.4 C 62 % -0.34 C
527 24-02-2019 19:50:00 6.3 C 64 % 0 C
528 24-02-2019 19:55:00 6.1 C 64 % -0.19 C
529 24-02-2019 20:00:00 5.9 C 62 % -0.81 C
530 24-02-2019 20:05:00 5.8 C 65 % -0.26 C
531 24-02-2019 20:10:00 5.7 C 64 % -0.56 C
532 24-02-2019 20:15:00 5.5 C 64 % -0.75 C
533 24-02-2019 20:20:00 5.2 C 65 % -0.83 C
534 24-02-2019 20:25:00 4.9 C 67 % -0.7 C
535 24-02-2019 20:30:00 4.6 C 69 % -0.58 C
536 24-02-2019 20:35:00 4.4 C 68 % -0.98 C
537 24-02-2019 20:40:00 4.3 C 67 % -1.27 C
538 24-02-2019 20:45:00 4.4 C 68 % -0.98 C
539 24-02-2019 20:50:00 4.3 C 68 % -1.07 C
540 24-02-2019 20:55:00 4.2 C 70 % -0.77 C
541 24-02-2019 21:00:00 4.1 C 71 % -0.67 C
542 24-02-2019 21:05:00 3.9 C 70 % -1.06 C
543 24-02-2019 21:10:00 3.8 C 71 % -0.96 C
544 24-02-2019 21:15:00 3.7 C 71 % -1.06 C
545 24-02-2019 21:20:00 3.7 C 71 % -1.06 C
546 24-02-2019 21:25:00 3.5 C 72 % -1.06 C
547 24-02-2019 21:30:00 3.3 C 71 % -1.44 C
548 24-02-2019 21:35:00 3.1 C 72 % -1.45 C
549 24-02-2019 21:40:00 2.9 C 73 % -1.45 C
550 24-02-2019 21:45:00 2.8 C 73 % -1.55 C
Sensor: Nr:Datum:Temp:Feuchte:Taupunkt:
Aussen-T/F 551 24-02-2019 21:50:00 2.8 C 72 % -1.73 C
552 24-02-2019 21:55:00 2.8 C 71 % -1.92 C
553 24-02-2019 22:00:00 2.8 C 71 % -1.92 C
554 24-02-2019 22:05:00 2.8 C 74 % -1.36 C
555 24-02-2019 22:10:00 2.6 C 76 % -1.19 C
556 24-02-2019 22:15:00 2.5 C 77 % -1.11 C
557 24-02-2019 22:20:00 2.4 C 76 % -1.39 C
558 24-02-2019 22:25:00 2.4 C 76 % -1.39 C
559 24-02-2019 22:30:00 2.4 C 74 % -1.75 C
560 24-02-2019 22:35:00 2.5 C 74 % -1.65 C
561 24-02-2019 22:40:00 2.6 C 74 % -1.56 C
562 24-02-2019 22:45:00 2.6 C 74 % -1.56 C
563 24-02-2019 22:50:00 2.5 C 74 % -1.65 C
564 24-02-2019 22:55:00 2.4 C 74 % -1.75 C
565 24-02-2019 23:00:00 2.2 C 75 % -1.76 C
566 24-02-2019 23:05:00 2.1 C 76 % -1.68 C
567 24-02-2019 23:10:00 1.9 C 77 % -1.69 C
568 24-02-2019 23:15:00 1.7 C 78 % -1.71 C
569 24-02-2019 23:20:00 1.6 C 79 % -1.64 C
570 24-02-2019 23:25:00 1.5 C 79 % -1.74 C
571 24-02-2019 23:30:00 1.6 C 78 % -1.81 C
572 24-02-2019 23:35:00 1.7 C 77 % -1.89 C
573 24-02-2019 23:40:00 1.8 C 77 % -1.79 C
574 24-02-2019 23:45:00 1.8 C 77 % -1.79 C
575 24-02-2019 23:50:00 1.9 C 77 % -1.69 C
Sensor: Nr:Datum:Temp:Feuchte:Taupunkt:
Aussen-T/F 576 24-02-2019 23:55:00 2 C 76 % -1.77 C
577 25-02-2019 00:00:00 1.8 C 76 % -1.97 C
578 25-02-2019 00:05:00 1.8 C 77 % -1.79 C
579 25-02-2019 00:10:00 1.7 C 77 % -1.89 C
580 25-02-2019 00:15:00 1.4 C 77 % -2.18 C
581 25-02-2019 00:20:00 1.3 C 78 % -2.1 C
582 25-02-2019 00:25:00 1.2 C 79 % -2.03 C
583 25-02-2019 00:30:00 1.1 C 80 % -1.96 C
584 25-02-2019 00:35:00 0.9 C 80 % -2.15 C
585 25-02-2019 00:40:00 0.8 C 80 % -2.25 C
586 25-02-2019 00:45:00 0.7 C 81 % -2.18 C
587 25-02-2019 00:50:00 0.7 C 81 % -2.18 C
588 25-02-2019 00:55:00 0.7 C 81 % -2.18 C
589 25-02-2019 01:00:00 1 C 81 % -1.88 C
590 25-02-2019 01:05:00 1.2 C 80 % -1.86 C
591 25-02-2019 01:10:00 1.3 C 80 % -1.76 C
592 25-02-2019 01:15:00 1.1 C 80 % -1.96 C
593 25-02-2019 01:20:00 0.9 C 81 % -1.98 C
594 25-02-2019 01:25:00 0.9 C 81 % -1.98 C
595 25-02-2019 01:30:00 0.9 C 81 % -1.98 C
596 25-02-2019 01:35:00 1 C 81 % -1.88 C
597 25-02-2019 01:40:00 0.9 C 81 % -1.98 C
598 25-02-2019 01:45:00 0.7 C 81 % -2.18 C
599 25-02-2019 01:50:00 0.6 C 82 % -2.11 C
600 25-02-2019 01:55:00 0.6 C 83 % -1.95 C
Sensor: Nr:Datum:Temp:Feuchte:Taupunkt:
Aussen-T/F 601 25-02-2019 02:00:00 0.7 C 83 % -1.85 C
602 25-02-2019 02:05:00 0.6 C 82 % -2.11 C
603 25-02-2019 02:10:00 0.4 C 82 % -2.3 C
604 25-02-2019 02:15:00 0.3 C 83 % -2.24 C
605 25-02-2019 02:20:00 0.2 C 83 % -2.34 C
606 25-02-2019 02:25:00 0 C 83 % -2.53 C
607 25-02-2019 02:30:00 -0.1 C 84 % -2.47 C
608 25-02-2019 02:35:00 -0.1 C 84 % -2.47 C
609 25-02-2019 02:40:00 -0.2 C 85 % -2.41 C
610 25-02-2019 02:45:00 -0.2 C 85 % -2.41 C
611 25-02-2019 02:50:00 -0.1 C 85 % -2.31 C
612 25-02-2019 02:55:00 0.1 C 85 % -2.11 C
613 25-02-2019 03:00:00 0.2 C 84 % -2.18 C
614 25-02-2019 03:05:00 0.3 C 84 % -2.08 C
615 25-02-2019 03:10:00 0.3 C 84 % -2.08 C
616 25-02-2019 03:15:00 0.3 C 83 % -2.24 C
617 25-02-2019 03:20:00 0.2 C 83 % -2.34 C
618 25-02-2019 03:25:00 0.1 C 83 % -2.44 C
619 25-02-2019 03:30:00 -0.1 C 83 % -2.63 C
620 25-02-2019 03:35:00 -0.2 C 84 % -2.57 C
621 25-02-2019 03:40:00 -0.2 C 85 % -2.41 C
622 25-02-2019 03:45:00 -0.3 C 85 % -2.51 C
623 25-02-2019 03:50:00 -0.3 C 85 % -2.51 C
624 25-02-2019 03:55:00 -0.4 C 85 % -2.61 C
625 25-02-2019 04:00:00 -0.5 C 85 % -2.71 C
Sensor: Nr:Datum:Temp:Feuchte:Taupunkt:
Aussen-T/F 626 25-02-2019 04:05:00 -0.5 C 86 % -2.55 C
627 25-02-2019 04:10:00 -0.5 C 86 % -2.55 C
628 25-02-2019 04:15:00 -0.5 C 86 % -2.55 C
629 25-02-2019 04:20:00 -0.6 C 86 % -2.65 C
630 25-02-2019 04:25:00 -0.6 C 86 % -2.65 C
631 25-02-2019 04:30:00 -0.6 C 86 % -2.65 C
632 25-02-2019 04:35:00 -0.6 C 86 % -2.65 C
633 25-02-2019 04:40:00 -0.6 C 86 % -2.65 C
634 25-02-2019 04:45:00 -0.7 C 86 % -2.74 C
635 25-02-2019 04:50:00 -0.7 C 87 % -2.59 C
636 25-02-2019 04:55:00 -0.6 C 87 % -2.49 C
637 25-02-2019 05:00:00 -0.6 C 87 % -2.49 C
638 25-02-2019 05:05:00 -0.6 C 87 % -2.49 C
639 25-02-2019 05:10:00 -0.6 C 87 % -2.49 C
640 25-02-2019 05:15:00 -0.6 C 87 % -2.49 C
641 25-02-2019 05:20:00 -0.7 C 87 % -2.59 C
642 25-02-2019 05:25:00 -0.8 C 87 % -2.69 C
643 25-02-2019 05:30:00 -0.8 C 87 % -2.69 C
644 25-02-2019 05:35:00 -0.8 C 87 % -2.69 C
645 25-02-2019 05:40:00 -0.9 C 87 % -2.79 C
646 25-02-2019 05:45:00 -0.8 C 88 % -2.53 C
647 25-02-2019 05:50:00 -0.7 C 88 % -2.44 C
648 25-02-2019 05:55:00 -0.6 C 88 % -2.34 C
649 25-02-2019 06:00:00 -0.6 C 88 % -2.34 C
650 25-02-2019 06:05:00 -0.6 C 87 % -2.49 C
Sensor: Nr:Datum:Temp:Feuchte:Taupunkt:
Aussen-T/F 651 25-02-2019 06:10:00 -0.7 C 87 % -2.59 C
652 25-02-2019 06:15:00 -0.8 C 87 % -2.69 C
653 25-02-2019 06:20:00 -0.8 C 88 % -2.53 C
654 25-02-2019 06:25:00 -0.8 C 88 % -2.53 C
655 25-02-2019 06:30:00 -0.9 C 88 % -2.63 C
656 25-02-2019 06:35:00 -1 C 88 % -2.73 C
657 25-02-2019 06:40:00 -1.1 C 88 % -2.83 C
658 25-02-2019 06:45:00 -1.1 C 88 % -2.83 C
659 25-02-2019 06:50:00 -1.1 C 89 % -2.68 C
660 25-02-2019 06:55:00 -0.9 C 89 % -2.48 C
661 25-02-2019 07:00:00 -0.9 C 88 % -2.63 C
662 25-02-2019 07:05:00 -1 C 88 % -2.73 C
663 25-02-2019 07:10:00 -1.1 C 88 % -2.83 C
664 25-02-2019 07:15:00 -1.1 C 88 % -2.83 C
665 25-02-2019 07:20:00 -1.2 C 88 % -2.93 C
666 25-02-2019 07:25:00 -1.2 C 88 % -2.93 C
667 25-02-2019 07:30:00 -1.3 C 88 % -3.03 C
668 25-02-2019 07:35:00 -1.3 C 88 % -3.03 C
669 25-02-2019 07:40:00 -1.3 C 88 % -3.03 C
670 25-02-2019 07:45:00 -1.4 C 88 % -3.13 C
671 25-02-2019 07:50:00 -1.4 C 89 % -2.97 C
672 25-02-2019 07:55:00 -1.4 C 89 % -2.97 C
673 25-02-2019 08:00:00 -1.4 C 89 % -2.97 C
674 25-02-2019 08:05:00 -1.3 C 90 % -2.73 C
675 25-02-2019 08:10:00 -1.2 C 90 % -2.63 C
Sensor: Nr:Datum:Temp:Feuchte:Taupunkt:
Aussen-T/F 676 25-02-2019 08:15:00 -1.2 C 90 % -2.63 C
677 25-02-2019 08:20:00 -1.2 C 89 % -2.78 C
678 25-02-2019 08:25:00 -1.3 C 89 % -2.88 C
679 25-02-2019 08:30:00 -1.2 C 90 % -2.63 C
680 25-02-2019 08:35:00 -1.2 C 90 % -2.63 C
681 25-02-2019 08:40:00 -1.1 C 90 % -2.53 C
682 25-02-2019 08:45:00 -1.1 C 90 % -2.53 C
683 25-02-2019 08:50:00 -1.1 C 90 % -2.53 C
684 25-02-2019 08:55:00 -1.1 C 90 % -2.53 C
685 25-02-2019 09:00:00 -0.9 C 90 % -2.33 C
686 25-02-2019 09:05:00 -0.9 C 89 % -2.48 C
687 25-02-2019 09:10:00 -0.9 C 89 % -2.48 C
688 25-02-2019 09:15:00 -0.9 C 89 % -2.48 C
689 25-02-2019 09:20:00 -0.8 C 89 % -2.38 C
690 25-02-2019 09:25:00 -0.8 C 89 % -2.38 C
691 25-02-2019 09:30:00 -0.7 C 89 % -2.28 C
692 25-02-2019 09:35:00 -0.6 C 89 % -2.18 C
693 25-02-2019 09:40:00 -0.6 C 89 % -2.18 C
694 25-02-2019 09:45:00 -0.5 C 88 % -2.24 C
695 25-02-2019 09:50:00 -0.4 C 88 % -2.14 C
696 25-02-2019 09:55:00 -0.3 C 88 % -2.04 C
697 25-02-2019 10:00:00 -0.3 C 88 % -2.04 C
698 25-02-2019 10:05:00 -0.2 C 88 % -1.94 C
699 25-02-2019 10:10:00 0 C 88 % -1.74 C
700 25-02-2019 10:15:00 0.1 C 87 % -1.8 C
Sensor: Nr:Datum:Temp:Feuchte:Taupunkt:
Aussen-T/F 701 25-02-2019 10:20:00 0.3 C 87 % -1.6 C
702 25-02-2019 10:25:00 0.5 C 87 % -1.41 C
703 25-02-2019 10:30:00 0.7 C 88 % -1.05 C
704 25-02-2019 10:35:00 1 C 87 % -0.91 C
705 25-02-2019 10:40:00 1.3 C 87 % -0.62 C
706 25-02-2019 10:45:00 1.7 C 87 % -0.23 C
707 25-02-2019 10:50:00 2.1 C 86 % 0.01 C
708 25-02-2019 10:55:00 2.6 C 85 % 0.34 C
709 25-02-2019 11:00:00 2.9 C 82 % 0.14 C
710 25-02-2019 11:05:00 3.3 C 81 % 0.36 C
711 25-02-2019 11:10:00 3.7 C 82 % 0.92 C
712 25-02-2019 11:15:00 3.9 C 79 % 0.6 C
713 25-02-2019 11:20:00 4.3 C 78 % 0.81 C
714 25-02-2019 11:25:00 4.6 C 77 % 0.92 C
715 25-02-2019 11:30:00 4.9 C 78 % 1.39 C
716 25-02-2019 11:35:00 5.1 C 77 % 1.41 C
717 25-02-2019 11:40:00 5.4 C 77 % 1.7 C
718 25-02-2019 11:45:00 5.8 C 76 % 1.91 C
719 25-02-2019 11:50:00 6 C 74 % 1.73 C
720 25-02-2019 11:55:00 6.2 C 72 % 1.54 C
721 25-02-2019 12:00:00 6.5 C 72 % 1.83 C
722 25-02-2019 12:05:00 6.8 C 72 % 2.12 C
723 25-02-2019 12:10:00 7.3 C 71 % 2.4 C
724 25-02-2019 12:15:00 7.7 C 70 % 2.58 C
725 25-02-2019 12:20:00 8.1 C 69 % 2.77 C
Sensor: Nr:Datum:Temp:Feuchte:Taupunkt:
Aussen-T/F 726 25-02-2019 12:25:00 8.4 C 69 % 3.05 C
727 25-02-2019 12:30:00 8.9 C 68 % 3.32 C
728 25-02-2019 12:35:00 9.5 C 66 % 3.47 C
729 25-02-2019 12:40:00 9.9 C 64 % 3.42 C
730 25-02-2019 12:45:00 10.3 C 62 % 3.35 C
731 25-02-2019 12:50:00 10.5 C 62 % 3.54 C
732 25-02-2019 12:55:00 10.6 C 61 % 3.4 C
733 25-02-2019 13:00:00 10.7 C 61 % 3.5 C
734 25-02-2019 13:05:00 11 C 62 % 4.01 C
735 25-02-2019 13:10:00 11.3 C 60 % 3.83 C
736 25-02-2019 13:15:00 11.6 C 53 % 2.36 C
737 25-02-2019 13:20:00 11.9 C 54 % 2.9 C
738 25-02-2019 13:25:00 12.3 C 47 % 1.33 C
739 25-02-2019 13:30:00 12.7 C 51 % 2.84 C
740 25-02-2019 13:35:00 13.1 C 50 % 2.93 C
741 25-02-2019 13:40:00 13.4 C 53 % 4.03 C
742 25-02-2019 13:45:00 13.8 C 51 % 3.85 C
743 25-02-2019 13:50:00 14.2 C 50 % 3.94 C
744 25-02-2019 13:55:00 14.6 C 48 % 3.73 C
745 25-02-2019 14:00:00 14.8 C 49 % 4.2 C
746 25-02-2019 14:05:00 14.9 C 48 % 4 C
747 25-02-2019 14:10:00 15 C 49 % 4.39 C
748 25-02-2019 14:15:00 15.1 C 48 % 4.18 C
749 25-02-2019 14:20:00 15 C 45 % 3.18 C
750 25-02-2019 14:25:00 14.9 C 45 % 3.09 C
Sensor: Nr:Datum:Temp:Feuchte:Taupunkt:
Aussen-T/F 751 25-02-2019 14:30:00 14.7 C 46 % 3.22 C
752 25-02-2019 14:35:00 14.6 C 46 % 3.12 C
753 25-02-2019 14:40:00 14.4 C 44 % 2.32 C
754 25-02-2019 14:45:00 14.4 C 46 % 2.94 C
755 25-02-2019 14:50:00 14.5 C 46 % 3.03 C
756 25-02-2019 14:55:00 14.6 C 48 % 3.73 C
757 25-02-2019 15:00:00 14.5 C 48 % 3.63 C
758 25-02-2019 15:05:00 14.5 C 46 % 3.03 C
759 25-02-2019 15:10:00 14.5 C 47 % 3.34 C
760 25-02-2019 15:15:00 14.4 C 50 % 4.12 C
761 25-02-2019 15:20:00 14.4 C 47 % 3.25 C
762 25-02-2019 15:25:00 14.3 C 49 % 3.74 C
763 25-02-2019 15:30:00 14.2 C 50 % 3.94 C
764 25-02-2019 15:35:00 14 C 51 % 4.04 C
765 25-02-2019 15:40:00 13.9 C 52 % 4.22 C
766 25-02-2019 15:45:00 13.8 C 52 % 4.13 C
767 25-02-2019 15:50:00 13.8 C 52 % 4.13 C
768 25-02-2019 15:55:00 13.8 C 51 % 3.85 C
769 25-02-2019 16:00:00 13.9 C 51 % 3.94 C
770 25-02-2019 16:05:00 13.9 C 51 % 3.94 C
771 25-02-2019 16:10:00 14.1 C 51 % 4.13 C
772 25-02-2019 16:15:00 14.1 C 46 % 2.67 C
773 25-02-2019 16:20:00 14.3 C 51 % 4.31 C
774 25-02-2019 16:25:00 14.5 C 48 % 3.63 C
775 25-02-2019 16:30:00 14.7 C 50 % 4.4 C
Sensor: Nr:Datum:Temp:Feuchte:Taupunkt:
Aussen-T/F 776 25-02-2019 16:35:00 14.7 C 50 % 4.4 C
777 25-02-2019 16:40:00 14.6 C 48 % 3.73 C
778 25-02-2019 16:45:00 14.6 C 49 % 4.02 C
779 25-02-2019 16:50:00 14.6 C 50 % 4.31 C
780 25-02-2019 16:55:00 14.5 C 50 % 4.21 C
781 25-02-2019 17:00:00 14.4 C 51 % 4.4 C
782 25-02-2019 17:05:00 14.2 C 51 % 4.22 C
783 25-02-2019 17:10:00 14.1 C 52 % 4.4 C
784 25-02-2019 17:15:00 13.9 C 52 % 4.22 C
785 25-02-2019 17:20:00 13.7 C 53 % 4.31 C
786 25-02-2019 17:25:00 13.6 C 53 % 4.21 C
787 25-02-2019 17:30:00 13.6 C 54 % 4.48 C
788 25-02-2019 17:35:00 13.6 C 53 % 4.21 C
789 25-02-2019 17:40:00 13.4 C 53 % 4.03 C
790 25-02-2019 17:45:00 13.3 C 54 % 4.2 C
791 25-02-2019 17:50:00 13.1 C 54 % 4.01 C
792 25-02-2019 17:55:00 12.8 C 55 % 4 C
793 25-02-2019 18:00:00 12.6 C 56 % 4.07 C
794 25-02-2019 18:05:00 12.2 C 56 % 3.69 C
795 25-02-2019 18:10:00 11.8 C 58 % 3.82 C
796 25-02-2019 18:15:00 11.4 C 58 % 3.44 C
797 25-02-2019 18:20:00 11.2 C 59 % 3.5 C
798 25-02-2019 18:25:00 11 C 60 % 3.55 C
799 25-02-2019 18:30:00 10.8 C 60 % 3.36 C
800 25-02-2019 18:35:00 10.7 C 61 % 3.5 C
Sensor: Nr:Datum:Temp:Feuchte:Taupunkt:
Aussen-T/F 801 25-02-2019 18:40:00 10.6 C 62 % 3.63 C
802 25-02-2019 18:45:00 10.4 C 62 % 3.44 C
803 25-02-2019 18:50:00 10.3 C 63 % 3.58 C
804 25-02-2019 18:55:00 10.2 C 63 % 3.48 C
805 25-02-2019 19:00:00 10 C 63 % 3.29 C
806 25-02-2019 19:05:00 9.8 C 64 % 3.32 C
807 25-02-2019 19:10:00 9.6 C 65 % 3.35 C
808 25-02-2019 19:15:00 9.4 C 66 % 3.38 C
809 25-02-2019 19:20:00 9.2 C 67 % 3.4 C
810 25-02-2019 19:25:00 8.9 C 68 % 3.32 C
811 25-02-2019 19:30:00 8.8 C 68 % 3.23 C
812 25-02-2019 19:35:00 8.8 C 68 % 3.23 C
813 25-02-2019 19:40:00 8.8 C 68 % 3.23 C
814 25-02-2019 19:45:00 8.7 C 68 % 3.13 C
815 25-02-2019 19:50:00 8.6 C 68 % 3.04 C
816 25-02-2019 19:55:00 8.3 C 69 % 2.96 C
817 25-02-2019 20:00:00 8.1 C 70 % 2.97 C
818 25-02-2019 20:05:00 8 C 71 % 3.07 C
819 25-02-2019 20:10:00 7.8 C 71 % 2.88 C
820 25-02-2019 20:15:00 7.4 C 72 % 2.69 C
821 25-02-2019 20:20:00 7.1 C 72 % 2.4 C
822 25-02-2019 20:25:00 6.9 C 73 % 2.4 C
823 25-02-2019 20:30:00 6.8 C 74 % 2.5 C
824 25-02-2019 20:35:00 6.8 C 75 % 2.69 C
825 25-02-2019 20:40:00 6.6 C 74 % 2.31 C
Sensor: Nr:Datum:Temp:Feuchte:Taupunkt:
Aussen-T/F 826 25-02-2019 20:45:00 6.4 C 74 % 2.11 C
827 25-02-2019 20:50:00 6.3 C 74 % 2.02 C
828 25-02-2019 20:55:00 6.3 C 75 % 2.2 C
829 25-02-2019 21:00:00 6.3 C 75 % 2.2 C
830 25-02-2019 21:05:00 6.1 C 75 % 2.01 C
831 25-02-2019 21:10:00 5.9 C 75 % 1.82 C
832 25-02-2019 21:15:00 5.9 C 75 % 1.82 C
833 25-02-2019 21:20:00 5.8 C 75 % 1.72 C
834 25-02-2019 21:25:00 5.6 C 76 % 1.71 C
835 25-02-2019 21:30:00 5.4 C 77 % 1.7 C
836 25-02-2019 21:35:00 5.3 C 77 % 1.6 C
837 25-02-2019 21:40:00 5.2 C 78 % 1.69 C
838 25-02-2019 21:45:00 5.2 C 78 % 1.69 C
839 25-02-2019 21:50:00 5.1 C 79 % 1.77 C
840 25-02-2019 21:55:00 5.1 C 79 % 1.77 C
841 25-02-2019 22:00:00 5 C 79 % 1.67 C
842 25-02-2019 22:05:00 5 C 78 % 1.49 C
843 25-02-2019 22:10:00 4.9 C 78 % 1.39 C
844 25-02-2019 22:15:00 4.8 C 79 % 1.47 C
845 25-02-2019 22:20:00 4.8 C 79 % 1.47 C
846 25-02-2019 22:25:00 4.7 C 79 % 1.38 C
847 25-02-2019 22:30:00 4.5 C 79 % 1.18 C
848 25-02-2019 22:35:00 4.4 C 80 % 1.26 C
849 25-02-2019 22:40:00 4.2 C 80 % 1.07 C
850 25-02-2019 22:45:00 4.2 C 80 % 1.07 C
Sensor: Nr:Datum:Temp:Feuchte:Taupunkt:
Aussen-T/F 851 25-02-2019 22:50:00 4.1 C 80 % 0.97 C
852 25-02-2019 22:55:00 4 C 82 % 1.21 C
853 25-02-2019 23:00:00 3.9 C 82 % 1.12 C
854 25-02-2019 23:05:00 3.8 C 83 % 1.19 C
855 25-02-2019 23:10:00 3.8 C 83 % 1.19 C
856 25-02-2019 23:15:00 3.7 C 82 % 0.92 C
857 25-02-2019 23:20:00 3.4 C 82 % 0.63 C
858 25-02-2019 23:25:00 3.2 C 83 % 0.6 C
859 25-02-2019 23:30:00 3.1 C 84 % 0.67 C
860 25-02-2019 23:35:00 3 C 84 % 0.57 C
861 25-02-2019 23:40:00 2.8 C 84 % 0.37 C
862 25-02-2019 23:45:00 2.7 C 85 % 0.44 C
863 25-02-2019 23:50:00 2.8 C 86 % 0.7 C
864 25-02-2019 23:55:00 2.8 C 85 % 0.54 C
865 26-02-2019 00:00:00 2.7 C 85 % 0.44 C
866 26-02-2019 00:05:00 2.8 C 86 % 0.7 C
867 26-02-2019 00:10:00 2.7 C 85 % 0.44 C
868 26-02-2019 00:15:00 2.6 C 86 % 0.5 C
869 26-02-2019 00:20:00 2.6 C 86 % 0.5 C
870 26-02-2019 00:25:00 2.6 C 86 % 0.5 C
871 26-02-2019 00:30:00 2.6 C 87 % 0.66 C
872 26-02-2019 00:35:00 2.5 C 86 % 0.4 C
873 26-02-2019 00:40:00 2.3 C 85 % 0.04 C
874 26-02-2019 00:45:00 2 C 86 % -0.09 C
875 26-02-2019 00:50:00 1.9 C 87 % -0.03 C
Sensor: Nr:Datum:Temp:Feuchte:Taupunkt:
Aussen-T/F 876 26-02-2019 00:55:00 1.8 C 88 % 0.03 C
877 26-02-2019 01:00:00 1.8 C 89 % 0.19 C
878 26-02-2019 01:05:00 1.9 C 89 % 0.28 C
879 26-02-2019 01:10:00 1.9 C 89 % 0.28 C
880 26-02-2019 01:15:00 1.9 C 88 % 0.13 C
881 26-02-2019 01:20:00 1.8 C 89 % 0.19 C
882 26-02-2019 01:25:00 1.9 C 89 % 0.28 C
883 26-02-2019 01:30:00 1.9 C 89 % 0.28 C
884 26-02-2019 01:35:00 2.1 C 90 % 0.64 C
885 26-02-2019 01:40:00 2.2 C 89 % 0.58 C
886 26-02-2019 01:45:00 2.1 C 88 % 0.33 C
887 26-02-2019 01:50:00 1.9 C 88 % 0.13 C
888 26-02-2019 01:55:00 1.8 C 88 % 0.03 C
889 26-02-2019 02:00:00 1.6 C 89 % -0.01 C
890 26-02-2019 02:05:00 1.6 C 89 % -0.01 C
891 26-02-2019 02:10:00 1.7 C 90 % 0.24 C
892 26-02-2019 02:15:00 1.7 C 90 % 0.24 C
893 26-02-2019 02:20:00 1.6 C 89 % -0.01 C
894 26-02-2019 02:25:00 1.4 C 89 % -0.21 C
895 26-02-2019 02:30:00 1.3 C 89 % -0.31 C
896 26-02-2019 02:35:00 1.3 C 90 % -0.15 C
897 26-02-2019 02:40:00 1.2 C 90 % -0.25 C
898 26-02-2019 02:45:00 1.3 C 91 % 0 C
899 26-02-2019 02:50:00 1.1 C 90 % -0.35 C
900 26-02-2019 02:55:00 0.9 C 89 % -0.7 C
Sensor: Nr:Datum:Temp:Feuchte:Taupunkt:
Aussen-T/F 901 26-02-2019 03:00:00 0.7 C 90 % -0.75 C
902 26-02-2019 03:05:00 0.6 C 90 % -0.85 C
903 26-02-2019 03:10:00 0.5 C 90 % -0.95 C
904 26-02-2019 03:15:00 0.4 C 91 % -0.89 C
905 26-02-2019 03:20:00 0.5 C 91 % -0.79 C
906 26-02-2019 03:25:00 0.5 C 91 % -0.79 C
907 26-02-2019 03:30:00 0.6 C 92 % -0.55 C
908 26-02-2019 03:35:00 0.8 C 92 % -0.35 C
909 26-02-2019 03:40:00 0.8 C 92 % -0.35 C
910 26-02-2019 03:45:00 0.7 C 91 % -0.6 C
911 26-02-2019 03:50:00 0.7 C 92 % -0.45 C
912 26-02-2019 03:55:00 0.8 C 92 % -0.35 C
913 26-02-2019 04:00:00 0.7 C 92 % -0.45 C
914 26-02-2019 04:05:00 0.4 C 91 % -0.89 C
915 26-02-2019 04:10:00 0.3 C 92 % -0.84 C
916 26-02-2019 04:15:00 0.3 C 92 % -0.84 C
917 26-02-2019 04:20:00 0.4 C 92 % -0.74 C
918 26-02-2019 04:25:00 0.4 C 92 % -0.74 C
919 26-02-2019 04:30:00 0.4 C 92 % -0.74 C
920 26-02-2019 04:35:00 0.3 C 92 % -0.84 C
921 26-02-2019 04:40:00 0.2 C 92 % -0.94 C
922 26-02-2019 04:45:00 0.1 C 92 % -1.04 C
923 26-02-2019 04:50:00 0.2 C 93 % -0.79 C
924 26-02-2019 04:55:00 0.2 C 93 % -0.79 C
925 26-02-2019 05:00:00 0.2 C 93 % -0.79 C
Sensor: Nr:Datum:Temp:Feuchte:Taupunkt:
Aussen-T/F 926 26-02-2019 05:05:00 0.1 C 93 % -0.89 C
927 26-02-2019 05:10:00 0.1 C 93 % -0.89 C
928 26-02-2019 05:15:00 0.1 C 93 % -0.89 C
929 26-02-2019 05:20:00 0 C 93 % -0.99 C
930 26-02-2019 05:25:00 0.1 C 93 % -0.89 C
931 26-02-2019 05:30:00 0.2 C 93 % -0.79 C
932 26-02-2019 05:35:00 0.3 C 93 % -0.7 C
933 26-02-2019 05:40:00 0.4 C 94 % -0.45 C
934 26-02-2019 05:45:00 0.4 C 93 % -0.6 C
935 26-02-2019 05:50:00 0.4 C 93 % -0.6 C
936 26-02-2019 05:55:00 0.3 C 93 % -0.7 C
937 26-02-2019 06:00:00 0.2 C 92 % -0.94 C
938 26-02-2019 06:05:00 -0.1 C 92 % -1.24 C
939 26-02-2019 06:10:00 -0.2 C 92 % -1.34 C
940 26-02-2019 06:15:00 -0.3 C 92 % -1.44 C
941 26-02-2019 06:20:00 -0.3 C 93 % -1.29 C
942 26-02-2019 06:25:00 -0.4 C 93 % -1.39 C
943 26-02-2019 06:30:00 -0.4 C 93 % -1.39 C
944 26-02-2019 06:35:00 -0.4 C 93 % -1.39 C
945 26-02-2019 06:40:00 -0.4 C 93 % -1.39 C
946 26-02-2019 06:45:00 -0.6 C 93 % -1.59 C
947 26-02-2019 06:50:00 -0.5 C 93 % -1.49 C
948 26-02-2019 06:55:00 -0.4 C 94 % -1.25 C
949 26-02-2019 07:00:00 -0.2 C 94 % -1.05 C
950 26-02-2019 07:05:00 -0.2 C 94 % -1.05 C
Sensor: Nr:Datum:Temp:Feuchte:Taupunkt:
Aussen-T/F 951 26-02-2019 07:10:00 -0.2 C 94 % -1.05 C
952 26-02-2019 07:15:00 -0.3 C 93 % -1.29 C
953 26-02-2019 07:20:00 -0.4 C 93 % -1.39 C
954 26-02-2019 07:25:00 -0.6 C 93 % -1.59 C
955 26-02-2019 07:30:00 -0.8 C 93 % -1.79 C
956 26-02-2019 07:35:00 -0.8 C 93 % -1.79 C
957 26-02-2019 07:40:00 -0.8 C 94 % -1.64 C
958 26-02-2019 07:45:00 -0.6 C 94 % -1.44 C
959 26-02-2019 07:50:00 -0.5 C 94 % -1.34 C
960 26-02-2019 07:55:00 -0.4 C 94 % -1.25 C
961 26-02-2019 08:00:00 -0.4 C 94 % -1.25 C
962 26-02-2019 08:05:00 -0.3 C 94 % -1.15 C
963 26-02-2019 08:10:00 -0.3 C 94 % -1.15 C
964 26-02-2019 08:15:00 -0.3 C 94 % -1.15 C
965 26-02-2019 08:20:00 -0.3 C 94 % -1.15 C
966 26-02-2019 08:25:00 -0.3 C 94 % -1.15 C
967 26-02-2019 08:30:00 -0.2 C 94 % -1.05 C
968 26-02-2019 08:35:00 -0.1 C 95 % -0.8 C
969 26-02-2019 08:40:00 0 C 95 % -0.7 C
970 26-02-2019 08:45:00 0.2 C 95 % -0.5 C
971 26-02-2019 08:50:00 0.3 C 95 % -0.4 C
972 26-02-2019 08:55:00 0.4 C 95 % -0.31 C
973 26-02-2019 09:00:00 0.4 C 94 % -0.45 C
974 26-02-2019 09:05:00 0.4 C 94 % -0.45 C
975 26-02-2019 09:10:00 0.5 C 94 % -0.35 C
Sensor: Nr:Datum:Temp:Feuchte:Taupunkt:
Aussen-T/F 976 26-02-2019 09:15:00 0.6 C 95 % -0.11 C
977 26-02-2019 09:20:00 0.7 C 95 % -0.01 C
978 26-02-2019 09:25:00 0.8 C 95 % 0.09 C
979 26-02-2019 09:30:00 0.9 C 95 % 0.19 C
980 26-02-2019 09:35:00 0.9 C 95 % 0.19 C
981 26-02-2019 09:40:00 0.9 C 95 % 0.19 C
982 26-02-2019 09:45:00 1.1 C 95 % 0.39 C
983 26-02-2019 09:50:00 1.2 C 95 % 0.49 C
984 26-02-2019 09:55:00 1.3 C 95 % 0.59 C
985 26-02-2019 10:00:00 1.6 C 95 % 0.89 C
986 26-02-2019 10:05:00 1.7 C 95 % 0.99 C
987 26-02-2019 10:10:00 1.8 C 95 % 1.09 C
988 26-02-2019 10:15:00 1.9 C 95 % 1.19 C
989 26-02-2019 10:20:00 2.1 C 95 % 1.38 C
990 26-02-2019 10:25:00 2.3 C 95 % 1.58 C
991 26-02-2019 10:30:00 2.5 C 95 % 1.78 C
992 26-02-2019 10:35:00 2.9 C 95 % 2.18 C
993 26-02-2019 10:40:00 3.2 C 94 % 2.33 C
994 26-02-2019 10:45:00 3.5 C 94 % 2.63 C
995 26-02-2019 10:50:00 3.8 C 93 % 2.77 C
996 26-02-2019 10:55:00 4 C 92 % 2.82 C
997 26-02-2019 11:00:00 4.3 C 91 % 2.96 C
998 26-02-2019 11:05:00 4.5 C 90 % 3.01 C
999 26-02-2019 11:10:00 4.8 C 90 % 3.3 C
1000 26-02-2019 11:15:00 5.1 C 90 % 3.6 C
Sensor: Nr:Datum:Temp:Feuchte:Taupunkt:
Aussen-T/F 1001 26-02-2019 11:20:00 5.4 C 90 % 3.89 C
1002 26-02-2019 11:25:00 5.7 C 89 % 4.03 C
1003 26-02-2019 11:30:00 5.9 C 87 % 3.91 C
1004 26-02-2019 11:35:00 6.2 C 85 % 3.87 C
1005 26-02-2019 11:40:00 6.4 C 84 % 3.9 C
1006 26-02-2019 11:45:00 6.7 C 82 % 3.85 C
1007 26-02-2019 11:50:00 6.9 C 81 % 3.87 C
1008 26-02-2019 11:55:00 7.1 C 81 % 4.07 C
1009 26-02-2019 12:00:00 7.3 C 81 % 4.26 C
1010 26-02-2019 12:05:00 7.5 C 80 % 4.28 C
1011 26-02-2019 12:10:00 7.8 C 76 % 3.84 C
1012 26-02-2019 12:15:00 8.3 C 75 % 4.14 C
1013 26-02-2019 12:20:00 8.8 C 73 % 4.24 C
1014 26-02-2019 12:25:00 9.3 C 73 % 4.72 C
1015 26-02-2019 12:30:00 9.8 C 71 % 4.8 C
1016 26-02-2019 12:35:00 10.3 C 69 % 4.87 C
1017 26-02-2019 12:40:00 10.8 C 69 % 5.35 C
1018 26-02-2019 12:45:00 11.2 C 65 % 4.87 C
1019 26-02-2019 12:50:00 11.4 C 68 % 5.71 C
1020 26-02-2019 12:55:00 11.6 C 69 % 6.11 C
1021 26-02-2019 13:00:00 11.7 C 68 % 6 C
1022 26-02-2019 13:05:00 11.9 C 68 % 6.19 C
1023 26-02-2019 13:10:00 12.3 C 70 % 6.99 C
1024 26-02-2019 13:15:00 12.7 C 69 % 7.17 C
1025 26-02-2019 13:20:00 13.2 C 67 % 7.21 C
Sensor: Nr:Datum:Temp:Feuchte:Taupunkt:
Aussen-T/F 1026 26-02-2019 13:25:00 13.7 C 66 % 7.47 C
1027 26-02-2019 13:30:00 14.1 C 66 % 7.85 C
1028 26-02-2019 13:35:00 14.5 C 65 % 8.01 C
1029 26-02-2019 13:40:00 14.9 C 64 % 8.16 C
1030 26-02-2019 13:45:00 15.4 C 61 % 7.93 C
1031 26-02-2019 13:50:00 15.8 C 60 % 8.06 C
1032 26-02-2019 13:55:00 16.1 C 59 % 8.09 C
1033 26-02-2019 14:00:00 16.4 C 58 % 8.12 C
1034 26-02-2019 14:05:00 16.6 C 55 % 7.53 C
1035 26-02-2019 14:10:00 16.7 C 55 % 7.62 C
1036 26-02-2019 14:15:00 16.8 C 54 % 7.45 C
1037 26-02-2019 14:20:00 16.7 C 54 % 7.36 C
1038 26-02-2019 14:25:00 16.4 C 54 % 7.08 C
1039 26-02-2019 14:30:00 16.2 C 54 % 6.89 C
1040 26-02-2019 14:35:00 15.9 C 54 % 6.61 C
1041 26-02-2019 14:40:00 15.7 C 56 % 6.96 C
1042 26-02-2019 14:45:00 15.6 C 56 % 6.86 C
1043 26-02-2019 14:50:00 15.5 C 57 % 7.03 C
1044 26-02-2019 14:55:00 15.4 C 57 % 6.93 C
1045 26-02-2019 15:00:00 15.3 C 55 % 6.32 C
1046 26-02-2019 15:05:00 15.4 C 57 % 6.93 C
1047 26-02-2019 15:10:00 15.5 C 56 % 6.77 C
1048 26-02-2019 15:15:00 15.5 C 56 % 6.77 C
1049 26-02-2019 15:20:00 15.5 C 55 % 6.51 C
1050 26-02-2019 15:25:00 15.5 C 55 % 6.51 C
Sensor: Nr:Datum:Temp:Feuchte:Taupunkt:
Aussen-T/F 1051 26-02-2019 15:30:00 15.4 C 55 % 6.42 C
1052 26-02-2019 15:35:00 15.4 C 54 % 6.15 C
1053 26-02-2019 15:40:00 15.6 C 55 % 6.6 C
1054 26-02-2019 15:45:00 15.6 C 55 % 6.6 C
1055 26-02-2019 15:50:00 15.6 C 55 % 6.6 C
1056 26-02-2019 15:55:00 15.6 C 55 % 6.6 C
1057 26-02-2019 16:00:00 15.6 C 54 % 6.34 C
1058 26-02-2019 16:05:00 15.7 C 54 % 6.43 C
1059 26-02-2019 16:10:00 15.7 C 54 % 6.43 C
1060 26-02-2019 16:15:00 15.7 C 54 % 6.43 C
1061 26-02-2019 16:20:00 15.7 C 55 % 6.69 C
1062 26-02-2019 16:25:00 15.6 C 54 % 6.34 C
1063 26-02-2019 16:30:00 15.5 C 55 % 6.51 C
1064 26-02-2019 16:35:00 15.4 C 56 % 6.68 C
1065 26-02-2019 16:40:00 15.2 C 57 % 6.75 C
1066 26-02-2019 16:45:00 15.1 C 57 % 6.65 C
1067 26-02-2019 16:50:00 15.1 C 58 % 6.91 C
1068 26-02-2019 16:55:00 15 C 58 % 6.81 C
1069 26-02-2019 17:00:00 14.9 C 58 % 6.72 C
1070 26-02-2019 17:05:00 14.9 C 58 % 6.72 C
1071 26-02-2019 17:10:00 14.9 C 58 % 6.72 C
1072 26-02-2019 17:15:00 14.8 C 59 % 6.87 C
1073 26-02-2019 17:20:00 14.8 C 59 % 6.87 C
1074 26-02-2019 17:25:00 14.9 C 59 % 6.97 C
1075 26-02-2019 17:30:00 14.9 C 58 % 6.72 C
Sensor: Nr:Datum:Temp:Feuchte:Taupunkt:
Aussen-T/F 1076 26-02-2019 17:35:00 14.8 C 58 % 6.63 C
1077 26-02-2019 17:40:00 14.8 C 58 % 6.63 C
1078 26-02-2019 17:45:00 14.7 C 59 % 6.78 C
1079 26-02-2019 17:50:00 14.5 C 59 % 6.59 C
1080 26-02-2019 17:55:00 14.2 C 59 % 6.31 C
1081 26-02-2019 18:00:00 13.9 C 60 % 6.27 C
1082 26-02-2019 18:05:00 13.6 C 61 % 6.23 C
1083 26-02-2019 18:10:00 13.3 C 61 % 5.95 C
1084 26-02-2019 18:15:00 13 C 62 % 5.9 C
1085 26-02-2019 18:20:00 12.8 C 63 % 5.94 C
1086 26-02-2019 18:25:00 12.6 C 64 % 5.98 C
1087 26-02-2019 18:30:00 12.3 C 64 % 5.69 C
1088 26-02-2019 18:35:00 12.2 C 64 % 5.6 C
1089 26-02-2019 18:40:00 12.1 C 65 % 5.73 C
1090 26-02-2019 18:45:00 11.9 C 66 % 5.76 C
1091 26-02-2019 18:50:00 11.7 C 66 % 5.57 C
1092 26-02-2019 18:55:00 11.4 C 67 % 5.5 C
1093 26-02-2019 19:00:00 11.3 C 68 % 5.62 C
1094 26-02-2019 19:05:00 11.1 C 68 % 5.43 C
1095 26-02-2019 19:10:00 10.8 C 69 % 5.35 C
1096 26-02-2019 19:15:00 10.7 C 70 % 5.46 C
1097 26-02-2019 19:20:00 10.6 C 71 % 5.57 C
1098 26-02-2019 19:25:00 10.4 C 71 % 5.38 C
1099 26-02-2019 19:30:00 10.4 C 72 % 5.58 C
1100 26-02-2019 19:35:00 10.3 C 72 % 5.48 C
Sensor: Nr:Datum:Temp:Feuchte:Taupunkt:
Aussen-T/F 1101 26-02-2019 19:40:00 10.1 C 72 % 5.29 C
1102 26-02-2019 19:45:00 9.7 C 73 % 5.1 C
1103 26-02-2019 19:50:00 9.4 C 75 % 5.2 C
1104 26-02-2019 19:55:00 9.3 C 75 % 5.1 C
1105 26-02-2019 20:00:00 9.2 C 74 % 4.81 C
1106 26-02-2019 20:05:00 8.8 C 74 % 4.43 C
1107 26-02-2019 20:10:00 8.6 C 75 % 4.43 C
1108 26-02-2019 20:15:00 8.5 C 76 % 4.52 C
1109 26-02-2019 20:20:00 8.4 C 77 % 4.61 C
1110 26-02-2019 20:25:00 8.1 C 77 % 4.32 C
1111 26-02-2019 20:30:00 7.9 C 77 % 4.12 C
1112 26-02-2019 20:35:00 7.9 C 77 % 4.12 C
1113 26-02-2019 20:40:00 7.9 C 77 % 4.12 C
1114 26-02-2019 20:45:00 7.8 C 77 % 4.03 C
1115 26-02-2019 20:50:00 7.7 C 77 % 3.93 C
1116 26-02-2019 20:55:00 7.4 C 78 % 3.82 C
1117 26-02-2019 21:00:00 7.3 C 79 % 3.91 C
1118 26-02-2019 21:05:00 7.2 C 79 % 3.81 C
1119 26-02-2019 21:10:00 7 C 79 % 3.61 C
1120 26-02-2019 21:15:00 6.9 C 80 % 3.7 C
1121 26-02-2019 21:20:00 6.7 C 81 % 3.68 C
1122 26-02-2019 21:25:00 6.8 C 83 % 4.12 C
1123 26-02-2019 21:30:00 6.8 C 82 % 3.95 C
1124 26-02-2019 21:35:00 6.8 C 81 % 3.77 C
1125 26-02-2019 21:40:00 6.7 C 81 % 3.68 C
Sensor: Nr:Datum:Temp:Feuchte:Taupunkt:
Aussen-T/F 1126 26-02-2019 21:45:00 6.6 C 82 % 3.75 C
1127 26-02-2019 21:50:00 6.4 C 82 % 3.56 C
1128 26-02-2019 21:55:00 6.4 C 82 % 3.56 C
1129 26-02-2019 22:00:00 6.3 C 82 % 3.46 C
1130 26-02-2019 22:05:00 6.2 C 83 % 3.53 C
1131 26-02-2019 22:10:00 6.2 C 83 % 3.53 C
1132 26-02-2019 22:15:00 6.2 C 82 % 3.36 C
1133 26-02-2019 22:20:00 5.9 C 82 % 3.07 C
1134 26-02-2019 22:25:00 5.7 C 83 % 3.04 C
1135 26-02-2019 22:30:00 5.6 C 84 % 3.12 C
1136 26-02-2019 22:35:00 5.4 C 84 % 2.92 C
1137 26-02-2019 22:40:00 5.2 C 84 % 2.72 C
1138 26-02-2019 22:45:00 4.9 C 85 % 2.6 C
1139 26-02-2019 22:50:00 4.9 C 86 % 2.76 C
1140 26-02-2019 22:55:00 4.9 C 87 % 2.92 C
1141 26-02-2019 23:00:00 4.8 C 85 % 2.5 C
1142 26-02-2019 23:05:00 4.7 C 86 % 2.56 C
1143 26-02-2019 23:10:00 4.7 C 87 % 2.73 C
1144 26-02-2019 23:15:00 4.8 C 88 % 2.99 C
1145 26-02-2019 23:20:00 4.8 C 87 % 2.82 C
1146 26-02-2019 23:25:00 4.8 C 87 % 2.82 C
1147 26-02-2019 23:30:00 4.6 C 86 % 2.47 C
1148 26-02-2019 23:35:00 4.4 C 86 % 2.27 C
1149 26-02-2019 23:40:00 4.3 C 87 % 2.33 C
1150 26-02-2019 23:45:00 4.3 C 88 % 2.49 C
Sensor: Nr:Datum:Temp:Feuchte:Taupunkt:
Aussen-T/F 1151 26-02-2019 23:50:00 4.3 C 89 % 2.65 C
1152 26-02-2019 23:55:00 4.3 C 88 % 2.49 C
1153 27-02-2019 00:00:00 4.1 C 88 % 2.3 C
1154 27-02-2019 00:05:00 4 C 88 % 2.2 C
1155 27-02-2019 00:10:00 3.8 C 89 % 2.16 C
1156 27-02-2019 00:15:00 3.6 C 88 % 1.8 C
1157 27-02-2019 00:20:00 3.6 C 89 % 1.96 C
1158 27-02-2019 00:25:00 3.6 C 90 % 2.12 C
1159 27-02-2019 00:30:00 3.6 C 90 % 2.12 C
1160 27-02-2019 00:35:00 3.5 C 90 % 2.02 C
1161 27-02-2019 00:40:00 3.3 C 89 % 1.67 C
1162 27-02-2019 00:45:00 3.1 C 89 % 1.47 C
1163 27-02-2019 00:50:00 3.2 C 91 % 1.88 C
1164 27-02-2019 00:55:00 3.3 C 91 % 1.98 C
1165 27-02-2019 01:00:00 3.2 C 90 % 1.72 C
1166 27-02-2019 01:05:00 3 C 90 % 1.52 C
1167 27-02-2019 01:10:00 2.9 C 90 % 1.43 C
1168 27-02-2019 01:15:00 2.8 C 91 % 1.48 C
1169 27-02-2019 01:20:00 2.8 C 91 % 1.48 C
1170 27-02-2019 01:25:00 2.9 C 92 % 1.73 C
1171 27-02-2019 01:30:00 3 C 92 % 1.83 C
1172 27-02-2019 01:35:00 2.9 C 91 % 1.58 C
1173 27-02-2019 01:40:00 2.8 C 91 % 1.48 C
1174 27-02-2019 01:45:00 2.7 C 92 % 1.53 C
1175 27-02-2019 01:50:00 2.7 C 92 % 1.53 C
Sensor: Nr:Datum:Temp:Feuchte:Taupunkt:
Aussen-T/F 1176 27-02-2019 01:55:00 2.5 C 91 % 1.18 C
1177 27-02-2019 02:00:00 2.3 C 91 % 0.99 C
1178 27-02-2019 02:05:00 2.3 C 91 % 0.99 C
1179 27-02-2019 02:10:00 2.2 C 92 % 1.04 C
1180 27-02-2019 02:15:00 2.2 C 92 % 1.04 C
1181 27-02-2019 02:20:00 2 C 92 % 0.84 C
1182 27-02-2019 02:25:00 2.1 C 93 % 1.09 C
1183 27-02-2019 02:30:00 2.3 C 93 % 1.29 C
1184 27-02-2019 02:35:00 2.6 C 94 % 1.73 C
1185 27-02-2019 02:40:00 2.6 C 94 % 1.73 C
1186 27-02-2019 02:45:00 2.4 C 92 % 1.24 C
1187 27-02-2019 02:50:00 2.1 C 92 % 0.94 C
1188 27-02-2019 02:55:00 1.9 C 92 % 0.74 C
1189 27-02-2019 03:00:00 1.9 C 93 % 0.89 C
1190 27-02-2019 03:05:00 1.9 C 93 % 0.89 C
1191 27-02-2019 03:10:00 1.9 C 93 % 0.89 C
1192 27-02-2019 03:15:00 1.7 C 92 % 0.54 C
1193 27-02-2019 03:20:00 1.6 C 93 % 0.59 C
1194 27-02-2019 03:25:00 1.5 C 93 % 0.49 C
1195 27-02-2019 03:30:00 1.3 C 93 % 0.3 C
1196 27-02-2019 03:35:00 1.2 C 93 % 0.2 C
1197 27-02-2019 03:40:00 1.3 C 94 % 0.44 C
1198 27-02-2019 03:45:00 1.3 C 93 % 0.3 C
1199 27-02-2019 03:50:00 1 C 93 % 0 C
1200 27-02-2019 03:55:00 0.9 C 93 % -0.1 C
Sensor: Nr:Datum:Temp:Feuchte:Taupunkt:
Aussen-T/F 1201 27-02-2019 04:00:00 1 C 94 % 0.15 C
1202 27-02-2019 04:05:00 0.9 C 93 % -0.1 C
1203 27-02-2019 04:10:00 0.9 C 94 % 0.05 C
1204 27-02-2019 04:15:00 1 C 94 % 0.15 C
1205 27-02-2019 04:20:00 0.9 C 94 % 0.05 C
1206 27-02-2019 04:25:00 0.8 C 93 % -0.2 C
1207 27-02-2019 04:30:00 0.7 C 94 % -0.15 C
1208 27-02-2019 04:35:00 0.7 C 94 % -0.15 C
1209 27-02-2019 04:40:00 0.7 C 94 % -0.15 C
1210 27-02-2019 04:45:00 0.6 C 94 % -0.25 C
1211 27-02-2019 04:50:00 0.6 C 94 % -0.25 C
1212 27-02-2019 04:55:00 0.6 C 94 % -0.25 C
1213 27-02-2019 05:00:00 0.7 C 94 % -0.15 C
1214 27-02-2019 05:05:00 0.7 C 94 % -0.15 C
1215 27-02-2019 05:10:00 0.6 C 94 % -0.25 C
1216 27-02-2019 05:15:00 0.6 C 95 % -0.11 C
1217 27-02-2019 05:20:00 0.6 C 95 % -0.11 C
1218 27-02-2019 05:25:00 0.6 C 95 % -0.11 C
1219 27-02-2019 05:30:00 0.5 C 94 % -0.35 C
1220 27-02-2019 05:35:00 0.4 C 94 % -0.45 C
1221 27-02-2019 05:40:00 0.4 C 94 % -0.45 C
1222 27-02-2019 05:45:00 0.4 C 95 % -0.31 C
1223 27-02-2019 05:50:00 0.3 C 95 % -0.4 C
1224 27-02-2019 05:55:00 0.2 C 94 % -0.65 C
1225 27-02-2019 06:00:00 0.2 C 94 % -0.65 C
Sensor: Nr:Datum:Temp:Feuchte:Taupunkt:
Aussen-T/F 1226 27-02-2019 06:05:00 0.2 C 95 % -0.5 C
1227 27-02-2019 06:10:00 0.2 C 95 % -0.5 C
1228 27-02-2019 06:15:00 0.1 C 95 % -0.6 C
1229 27-02-2019 06:20:00 0 C 95 % -0.7 C
1230 27-02-2019 06:25:00 0.1 C 95 % -0.6 C
1231 27-02-2019 06:30:00 0.2 C 95 % -0.5 C
1232 27-02-2019 06:35:00 0.3 C 95 % -0.4 C
1233 27-02-2019 06:40:00 0.3 C 95 % -0.4 C
1234 27-02-2019 06:45:00 0.1 C 95 % -0.6 C
1235 27-02-2019 06:50:00 -0.1 C 95 % -0.8 C
1236 27-02-2019 06:55:00 -0.1 C 95 % -0.8 C
1237 27-02-2019 07:00:00 -0.2 C 95 % -0.9 C
1238 27-02-2019 07:05:00 -0.2 C 95 % -0.9 C
1239 27-02-2019 07:10:00 -0.2 C 95 % -0.9 C
1240 27-02-2019 07:15:00 -0.2 C 95 % -0.9 C
1241 27-02-2019 07:20:00 -0.3 C 95 % -1 C
1242 27-02-2019 07:25:00 -0.4 C 95 % -1.1 C
1243 27-02-2019 07:30:00 -0.6 C 95 % -1.3 C
1244 27-02-2019 07:35:00 -0.6 C 95 % -1.3 C
1245 27-02-2019 07:40:00 -0.6 C 95 % -1.3 C
1246 27-02-2019 07:45:00 -0.4 C 95 % -1.1 C
1247 27-02-2019 07:50:00 -0.4 C 95 % -1.1 C
1248 27-02-2019 07:55:00 -0.4 C 95 % -1.1 C
1249 27-02-2019 08:00:00 -0.4 C 95 % -1.1 C
1250 27-02-2019 08:05:00 -0.4 C 95 % -1.1 C
Sensor: Nr:Datum:Temp:Feuchte:Taupunkt:
Aussen-T/F 1251 27-02-2019 08:10:00 -0.4 C 95 % -1.1 C
1252 27-02-2019 08:15:00 -0.4 C 95 % -1.1 C
1253 27-02-2019 08:20:00 -0.4 C 95 % -1.1 C
1254 27-02-2019 08:25:00 -0.4 C 95 % -1.1 C
1255 27-02-2019 08:30:00 -0.3 C 96 % -0.86 C
1256 27-02-2019 08:35:00 -0.2 C 96 % -0.76 C
1257 27-02-2019 08:40:00 -0.2 C 96 % -0.76 C
1258 27-02-2019 08:45:00 -0.1 C 96 % -0.66 C
1259 27-02-2019 08:50:00 0 C 96 % -0.56 C
1260 27-02-2019 08:55:00 0.1 C 96 % -0.46 C
1261 27-02-2019 09:00:00 0.1 C 96 % -0.46 C
1262 27-02-2019 09:05:00 0.2 C 96 % -0.36 C
1263 27-02-2019 09:10:00 0.2 C 96 % -0.36 C
1264 27-02-2019 09:15:00 0.2 C 96 % -0.36 C
1265 27-02-2019 09:20:00 0.2 C 96 % -0.36 C
1266 27-02-2019 09:25:00 0.3 C 96 % -0.26 C
1267 27-02-2019 09:30:00 0.3 C 96 % -0.26 C
1268 27-02-2019 09:35:00 0.4 C 96 % -0.16 C
1269 27-02-2019 09:40:00 0.6 C 96 % 0.04 C
1270 27-02-2019 09:45:00 0.7 C 96 % 0.14 C
1271 27-02-2019 09:50:00 0.8 C 96 % 0.24 C
1272 27-02-2019 09:55:00 1 C 96 % 0.44 C
1273 27-02-2019 10:00:00 1.2 C 96 % 0.63 C
1274 27-02-2019 10:05:00 1.3 C 96 % 0.73 C
1275 27-02-2019 10:10:00 1.4 C 96 % 0.83 C
Sensor: Nr:Datum:Temp:Feuchte:Taupunkt:
Aussen-T/F 1276 27-02-2019 10:15:00 1.6 C 97 % 1.18 C
1277 27-02-2019 10:20:00 1.7 C 96 % 1.13 C
1278 27-02-2019 10:25:00 2 C 97 % 1.58 C
1279 27-02-2019 10:30:00 2.4 C 97 % 1.97 C
1280 27-02-2019 10:35:00 2.8 C 97 % 2.37 C
1281 27-02-2019 10:40:00 3.2 C 97 % 2.77 C
1282 27-02-2019 10:45:00 3.4 C 97 % 2.97 C
1283 27-02-2019 10:50:00 3.7 C 97 % 3.27 C
1284 27-02-2019 10:55:00 4.1 C 97 % 3.67 C
1285 27-02-2019 11:00:00 4.3 C 97 % 3.87 C
1286 27-02-2019 11:05:00 4.5 C 97 % 4.07 C
1287 27-02-2019 11:10:00 4.7 C 97 % 4.27 C
1288 27-02-2019 11:15:00 5 C 97 % 4.56 C
1289 27-02-2019 11:20:00 5.2 C 97 % 4.76 C
1290 27-02-2019 11:25:00 5.4 C 97 % 4.96 C
1291 27-02-2019 11:30:00 5.7 C 96 % 5.11 C
1292 27-02-2019 11:35:00 5.8 C 95 % 5.06 C
1293 27-02-2019 11:40:00 6 C 94 % 5.11 C
1294 27-02-2019 11:45:00 6.2 C 93 % 5.15 C
1295 27-02-2019 11:50:00 6.5 C 91 % 5.14 C
1296 27-02-2019 11:55:00 6.7 C 90 % 5.18 C
1297 27-02-2019 12:00:00 7 C 89 % 5.31 C
1298 27-02-2019 12:05:00 7.4 C 90 % 5.87 C
1299 27-02-2019 12:10:00 7.8 C 88 % 5.94 C
1300 27-02-2019 12:15:00 8.4 C 89 % 6.7 C
Sensor: Nr:Datum:Temp:Feuchte:Taupunkt:
Aussen-T/F 1301 27-02-2019 12:20:00 9.1 C 87 % 7.05 C
1302 27-02-2019 12:25:00 9.6 C 85 % 7.21 C
1303 27-02-2019 12:30:00 10.2 C 83 % 7.45 C
1304 27-02-2019 12:35:00 10.8 C 81 % 7.67 C
1305 27-02-2019 12:40:00 11.3 C 80 % 7.98 C
1306 27-02-2019 12:45:00 11.7 C 74 % 7.23 C
1307 27-02-2019 12:50:00 11.8 C 74 % 7.32 C
1308 27-02-2019 12:55:00 12 C 73 % 7.32 C
1309 27-02-2019 13:00:00 12.4 C 73 % 7.7 C
1310 27-02-2019 13:05:00 12.7 C 73 % 7.99 C
1311 27-02-2019 13:10:00 13.1 C 72 % 8.17 C
1312 27-02-2019 13:15:00 13.5 C 72 % 8.56 C
1313 27-02-2019 13:20:00 14.1 C 68 % 8.29 C
1314 27-02-2019 13:25:00 14.6 C 67 % 8.55 C
1315 27-02-2019 13:30:00 15.1 C 65 % 8.58 C
1316 27-02-2019 13:35:00 15.4 C 63 % 8.4 C
1317 27-02-2019 13:40:00 15.8 C 62 % 8.54 C
1318 27-02-2019 13:45:00 16.2 C 59 % 8.19 C
1319 27-02-2019 13:50:00 16.4 C 58 % 8.12 C
1320 27-02-2019 13:55:00 17 C 56 % 8.17 C
1321 27-02-2019 14:00:00 17.6 C 54 % 8.19 C
1322 27-02-2019 14:05:00 17.8 C 53 % 8.1 C
1323 27-02-2019 14:10:00 17.9 C 53 % 8.19 C
1324 27-02-2019 14:15:00 17.9 C 52 % 7.91 C
1325 27-02-2019 14:20:00 17.8 C 52 % 7.82 C
Sensor: Nr:Datum:Temp:Feuchte:Taupunkt:
Aussen-T/F 1326 27-02-2019 14:25:00 17.5 C 52 % 7.54 C
1327 27-02-2019 14:30:00 17.1 C 51 % 6.89 C
1328 27-02-2019 14:35:00 16.8 C 51 % 6.62 C
1329 27-02-2019 14:40:00 16.6 C 52 % 6.71 C
1330 27-02-2019 14:45:00 16.5 C 50 % 6.05 C
1331 27-02-2019 14:50:00 16.4 C 53 % 6.81 C
1332 27-02-2019 14:55:00 16.4 C 53 % 6.81 C
1333 27-02-2019 15:00:00 16.3 C 53 % 6.71 C
1334 27-02-2019 15:05:00 16.3 C 51 % 6.16 C
1335 27-02-2019 15:10:00 16.2 C 51 % 6.06 C
1336 27-02-2019 15:15:00 16.2 C 52 % 6.34 C
1337 27-02-2019 15:20:00 16.1 C 51 % 5.97 C
1338 27-02-2019 15:25:00 16 C 51 % 5.88 C
1339 27-02-2019 15:30:00 15.9 C 51 % 5.79 C
1340 27-02-2019 15:35:00 15.9 C 52 % 6.07 C
1341 27-02-2019 15:40:00 16 C 52 % 6.16 C
1342 27-02-2019 15:45:00 16.1 C 51 % 5.97 C
1343 27-02-2019 15:50:00 16.1 C 51 % 5.97 C
1344 27-02-2019 15:55:00 16.2 C 51 % 6.06 C
1345 27-02-2019 16:00:00 16.3 C 51 % 6.16 C
1346 27-02-2019 16:05:00 16.3 C 50 % 5.87 C
1347 27-02-2019 16:10:00 16.4 C 50 % 5.96 C
1348 27-02-2019 16:15:00 16.5 C 50 % 6.05 C
1349 27-02-2019 16:20:00 16.5 C 51 % 6.34 C
1350 27-02-2019 16:25:00 16.4 C 49 % 5.67 C
Sensor: Nr:Datum:Temp:Feuchte:Taupunkt:
Aussen-T/F 1351 27-02-2019 16:30:00 16.3 C 50 % 5.87 C
1352 27-02-2019 16:35:00 16.2 C 50 % 5.78 C
1353 27-02-2019 16:40:00 16.2 C 51 % 6.06 C
1354 27-02-2019 16:45:00 16.1 C 51 % 5.97 C
1355 27-02-2019 16:50:00 16 C 52 % 6.16 C
1356 27-02-2019 16:55:00 15.8 C 52 % 5.97 C
1357 27-02-2019 17:00:00 15.8 C 52 % 5.97 C
1358 27-02-2019 17:05:00 15.8 C 52 % 5.97 C
1359 27-02-2019 17:10:00 15.8 C 53 % 6.25 C
1360 27-02-2019 17:15:00 15.7 C 52 % 5.88 C
1361 27-02-2019 17:20:00 15.7 C 52 % 5.88 C
1362 27-02-2019 17:25:00 15.7 C 51 % 5.6 C
1363 27-02-2019 17:30:00 15.8 C 51 % 5.69 C
1364 27-02-2019 17:35:00 15.8 C 50 % 5.41 C
1365 27-02-2019 17:40:00 15.8 C 50 % 5.41 C
1366 27-02-2019 17:45:00 15.8 C 50 % 5.41 C
1367 27-02-2019 17:50:00 15.6 C 50 % 5.23 C
1368 27-02-2019 17:55:00 15.3 C 49 % 4.66 C
1369 27-02-2019 18:00:00 15 C 51 % 4.96 C
1370 27-02-2019 18:05:00 14.6 C 52 % 4.87 C
1371 27-02-2019 18:10:00 14.3 C 54 % 5.13 C
1372 27-02-2019 18:15:00 13.9 C 52 % 4.22 C
1373 27-02-2019 18:20:00 13.8 C 55 % 4.93 C
1374 27-02-2019 18:25:00 13.6 C 54 % 4.48 C
1375 27-02-2019 18:30:00 13.5 C 55 % 4.65 C
Sensor: Nr:Datum:Temp:Feuchte:Taupunkt:
Aussen-T/F 1376 27-02-2019 18:35:00 13.3 C 56 % 4.72 C
1377 27-02-2019 18:40:00 13 C 56 % 4.44 C
1378 27-02-2019 18:45:00 12.8 C 57 % 4.5 C
1379 27-02-2019 18:50:00 12.6 C 58 % 4.57 C
1380 27-02-2019 18:55:00 12.3 C 58 % 4.28 C
1381 27-02-2019 19:00:00 12.2 C 59 % 4.43 C
1382 27-02-2019 19:05:00 11.9 C 59 % 4.15 C
1383 27-02-2019 19:10:00 11.7 C 60 % 4.2 C
1384 27-02-2019 19:15:00 11.5 C 61 % 4.25 C
1385 27-02-2019 19:20:00 11.3 C 62 % 4.29 C
1386 27-02-2019 19:25:00 11.1 C 64 % 4.56 C
1387 27-02-2019 19:30:00 10.8 C 65 % 4.49 C
1388 27-02-2019 19:35:00 10.5 C 66 % 4.43 C
1389 27-02-2019 19:40:00 10.2 C 67 % 4.36 C
1390 27-02-2019 19:45:00 10 C 67 % 4.16 C
1391 27-02-2019 19:50:00 9.8 C 68 % 4.18 C
1392 27-02-2019 19:55:00 9.7 C 69 % 4.3 C
1393 27-02-2019 20:00:00 9.5 C 70 % 4.31 C
1394 27-02-2019 20:05:00 9.4 C 69 % 4.01 C
1395 27-02-2019 20:10:00 9.3 C 70 % 4.12 C
1396 27-02-2019 20:15:00 9.1 C 69 % 3.72 C
1397 27-02-2019 20:20:00 9.1 C 70 % 3.93 C
1398 27-02-2019 20:25:00 8.8 C 70 % 3.64 C
1399 27-02-2019 20:30:00 8.7 C 70 % 3.54 C
1400 27-02-2019 20:35:00 8.6 C 70 % 3.45 C
Sensor: Nr:Datum:Temp:Feuchte:Taupunkt:
Aussen-T/F 1401 27-02-2019 20:40:00 8.3 C 71 % 3.36 C
1402 27-02-2019 20:45:00 8.1 C 72 % 3.37 C
1403 27-02-2019 20:50:00 7.8 C 72 % 3.08 C
1404 27-02-2019 20:55:00 7.7 C 72 % 2.98 C
1405 27-02-2019 21:00:00 7.4 C 73 % 2.89 C
1406 27-02-2019 21:05:00 7.3 C 74 % 2.98 C
1407 27-02-2019 21:10:00 7.3 C 73 % 2.79 C
1408 27-02-2019 21:15:00 7.2 C 74 % 2.89 C
1409 27-02-2019 21:20:00 7.1 C 76 % 3.16 C
1410 27-02-2019 21:25:00 6.9 C 76 % 2.97 C
1411 27-02-2019 21:30:00 6.8 C 76 % 2.87 C
1412 27-02-2019 21:35:00 6.5 C 77 % 2.77 C
1413 27-02-2019 21:40:00 6.4 C 78 % 2.85 C
1414 27-02-2019 21:45:00 6.4 C 77 % 2.67 C
1415 27-02-2019 21:50:00 6.3 C 77 % 2.57 C
1416 27-02-2019 21:55:00 6 C 78 % 2.46 C
1417 27-02-2019 22:00:00 5.8 C 80 % 2.62 C
1418 27-02-2019 22:05:00 5.8 C 81 % 2.8 C
1419 27-02-2019 22:10:00 5.9 C 80 % 2.72 C
1420 27-02-2019 22:15:00 5.8 C 79 % 2.45 C
1421 27-02-2019 22:20:00 5.7 C 80 % 2.53 C
1422 27-02-2019 22:25:00 5.6 C 80 % 2.43 C
1423 27-02-2019 22:30:00 5.5 C 81 % 2.51 C
1424 27-02-2019 22:35:00 5.4 C 81 % 2.41 C
1425 27-02-2019 22:40:00 5.3 C 81 % 2.31 C
Sensor: Nr:Datum:Temp:Feuchte:Taupunkt:
Aussen-T/F 1426 27-02-2019 22:45:00 5.3 C 81 % 2.31 C
1427 27-02-2019 22:50:00 5.3 C 81 % 2.31 C
1428 27-02-2019 22:55:00 5.2 C 81 % 2.21 C
1429 27-02-2019 23:00:00 5.2 C 81 % 2.21 C
1430 27-02-2019 23:05:00 5.2 C 81 % 2.21 C
1431 27-02-2019 23:10:00 5.1 C 82 % 2.29 C
1432 27-02-2019 23:15:00 5.1 C 81 % 2.12 C
1433 27-02-2019 23:20:00 5.1 C 82 % 2.29 C
1434 27-02-2019 23:25:00 4.9 C 82 % 2.09 C
1435 27-02-2019 23:30:00 4.7 C 82 % 1.9 C
1436 27-02-2019 23:35:00 4.6 C 83 % 1.97 C
1437 27-02-2019 23:40:00 4.5 C 84 % 2.04 C
1438 27-02-2019 23:45:00 4.5 C 85 % 2.2 C
1439 27-02-2019 23:50:00 4.5 C 84 % 2.04 C
1440 27-02-2019 23:55:00 4.6 C 84 % 2.14 C
1441 28-02-2019 00:00:00 4.5 C 84 % 2.04 C
1442 28-02-2019 00:05:00 4.6 C 85 % 2.3 C
1443 28-02-2019 00:10:00 4.7 C 85 % 2.4 C
1444 28-02-2019 00:15:00 4.8 C 85 % 2.5 C
1445 28-02-2019 00:20:00 5.1 C 85 % 2.79 C
1446 28-02-2019 00:25:00 5.4 C 84 % 2.92 C
1447 28-02-2019 00:30:00 5.6 C 83 % 2.95 C
1448 28-02-2019 00:35:00 5.7 C 82 % 2.87 C
1449 28-02-2019 00:40:00 5.8 C 82 % 2.97 C
1450 28-02-2019 00:45:00 5.9 C 81 % 2.9 C
Sensor: Nr:Datum:Temp:Feuchte:Taupunkt:
Aussen-T/F 1451 28-02-2019 00:50:00 6 C 80 % 2.82 C
1452 28-02-2019 00:55:00 6.1 C 80 % 2.92 C
1453 28-02-2019 01:00:00 6.1 C 80 % 2.92 C
1454 28-02-2019 01:05:00 5.9 C 79 % 2.54 C
1455 28-02-2019 01:10:00 5.8 C 79 % 2.45 C
1456 28-02-2019 01:15:00 5.4 C 79 % 2.06 C
1457 28-02-2019 01:20:00 5.2 C 81 % 2.21 C
1458 28-02-2019 01:25:00 5 C 81 % 2.02 C
1459 28-02-2019 01:30:00 4.7 C 82 % 1.9 C
1460 28-02-2019 01:35:00 4.5 C 83 % 1.87 C
1461 28-02-2019 01:40:00 4.3 C 83 % 1.67 C
1462 28-02-2019 01:45:00 4.1 C 84 % 1.65 C
1463 28-02-2019 01:50:00 4.1 C 85 % 1.81 C
1464 28-02-2019 01:55:00 4.1 C 86 % 1.97 C
1465 28-02-2019 02:00:00 4.1 C 86 % 1.97 C
1466 28-02-2019 02:05:00 4.1 C 86 % 1.97 C
1467 28-02-2019 02:10:00 4.2 C 86 % 2.07 C
1468 28-02-2019 02:15:00 4.1 C 85 % 1.81 C
1469 28-02-2019 02:20:00 3.8 C 85 % 1.52 C
1470 28-02-2019 02:25:00 3.6 C 86 % 1.48 C
1471 28-02-2019 02:30:00 3.4 C 86 % 1.29 C
1472 28-02-2019 02:35:00 3.3 C 87 % 1.35 C
1473 28-02-2019 02:40:00 3.3 C 88 % 1.51 C
1474 28-02-2019 02:45:00 3.4 C 89 % 1.76 C
1475 28-02-2019 02:50:00 3.4 C 89 % 1.76 C
Sensor: Nr:Datum:Temp:Feuchte:Taupunkt:
Aussen-T/F 1476 28-02-2019 02:55:00 3.4 C 88 % 1.61 C
1477 28-02-2019 03:00:00 3.3 C 88 % 1.51 C
1478 28-02-2019 03:05:00 3.1 C 87 % 1.15 C
1479 28-02-2019 03:10:00 2.9 C 88 % 1.11 C
1480 28-02-2019 03:15:00 2.9 C 89 % 1.27 C
1481 28-02-2019 03:20:00 2.8 C 89 % 1.17 C
1482 28-02-2019 03:25:00 2.8 C 90 % 1.33 C
1483 28-02-2019 03:30:00 2.9 C 90 % 1.43 C
1484 28-02-2019 03:35:00 3 C 90 % 1.52 C
1485 28-02-2019 03:40:00 3.1 C 90 % 1.62 C
1486 28-02-2019 03:45:00 3 C 89 % 1.37 C
1487 28-02-2019 03:50:00 2.8 C 89 % 1.17 C
1488 28-02-2019 03:55:00 2.7 C 89 % 1.07 C
1489 28-02-2019 04:00:00 2.6 C 89 % 0.97 C
1490 28-02-2019 04:05:00 2.4 C 89 % 0.78 C
1491 28-02-2019 04:10:00 2.2 C 88 % 0.42 C
1492 28-02-2019 04:15:00 2 C 89 % 0.38 C
1493 28-02-2019 04:20:00 1.9 C 90 % 0.44 C
1494 28-02-2019 04:25:00 2.1 C 91 % 0.79 C
1495 28-02-2019 04:30:00 2.3 C 92 % 1.14 C
1496 28-02-2019 04:35:00 2.3 C 91 % 0.99 C
1497 28-02-2019 04:40:00 2.3 C 91 % 0.99 C
1498 28-02-2019 04:45:00 2.3 C 91 % 0.99 C
1499 28-02-2019 04:50:00 2.4 C 92 % 1.24 C
1500 28-02-2019 04:55:00 2.5 C 91 % 1.18 C
Sensor: Nr:Datum:Temp:Feuchte:Taupunkt:
Aussen-T/F 1501 28-02-2019 05:00:00 2.6 C 91 % 1.28 C
1502 28-02-2019 05:05:00 2.5 C 91 % 1.18 C
1503 28-02-2019 05:10:00 2.5 C 91 % 1.18 C
1504 28-02-2019 05:15:00 2.4 C 90 % 0.93 C
1505 28-02-2019 05:20:00 2.3 C 91 % 0.99 C
1506 28-02-2019 05:25:00 2.3 C 91 % 0.99 C
1507 28-02-2019 05:30:00 2.3 C 91 % 0.99 C
1508 28-02-2019 05:35:00 2.3 C 91 % 0.99 C
1509 28-02-2019 05:40:00 2.3 C 91 % 0.99 C
1510 28-02-2019 05:45:00 2.3 C 91 % 0.99 C
1511 28-02-2019 05:50:00 2.2 C 91 % 0.89 C
1512 28-02-2019 05:55:00 2.3 C 92 % 1.14 C
1513 28-02-2019 06:00:00 2.5 C 92 % 1.34 C
1514 28-02-2019 06:05:00 2.7 C 92 % 1.53 C
1515 28-02-2019 06:10:00 2.7 C 92 % 1.53 C
1516 28-02-2019 06:15:00 2.7 C 91 % 1.38 C
1517 28-02-2019 06:20:00 2.6 C 91 % 1.28 C
1518 28-02-2019 06:25:00 2.7 C 91 % 1.38 C
1519 28-02-2019 06:30:00 2.9 C 92 % 1.73 C
1520 28-02-2019 06:35:00 3.4 C 92 % 2.23 C
1521 28-02-2019 06:40:00 3.8 C 90 % 2.31 C
1522 28-02-2019 06:45:00 4.2 C 88 % 2.39 C
1523 28-02-2019 06:50:00 4.2 C 87 % 2.23 C
1524 28-02-2019 06:55:00 4.2 C 87 % 2.23 C
1525 28-02-2019 07:00:00 4.2 C 87 % 2.23 C
Sensor: Nr:Datum:Temp:Feuchte:Taupunkt:
Aussen-T/F 1526 28-02-2019 07:05:00 4.2 C 86 % 2.07 C
1527 28-02-2019 07:10:00 4.1 C 86 % 1.97 C
1528 28-02-2019 07:15:00 3.9 C 86 % 1.78 C
1529 28-02-2019 07:20:00 3.9 C 87 % 1.94 C
1530 28-02-2019 07:25:00 3.8 C 87 % 1.84 C
1531 28-02-2019 07:30:00 3.8 C 87 % 1.84 C
1532 28-02-2019 07:35:00 3.7 C 87 % 1.74 C
1533 28-02-2019 07:40:00 3.6 C 88 % 1.8 C
1534 28-02-2019 07:45:00 3.4 C 87 % 1.45 C
1535 28-02-2019 07:50:00 3.3 C 87 % 1.35 C
1536 28-02-2019 07:55:00 3.1 C 87 % 1.15 C
1537 28-02-2019 08:00:00 2.9 C 88 % 1.11 C
1538 28-02-2019 08:05:00 2.7 C 88 % 0.92 C
1539 28-02-2019 08:10:00 2.7 C 88 % 0.92 C
1540 28-02-2019 08:15:00 2.6 C 89 % 0.97 C
1541 28-02-2019 08:20:00 2.7 C 90 % 1.23 C
1542 28-02-2019 08:25:00 2.8 C 90 % 1.33 C
1543 28-02-2019 08:30:00 2.9 C 91 % 1.58 C
1544 28-02-2019 08:35:00 3.1 C 91 % 1.78 C
1545 28-02-2019 08:40:00 3.3 C 91 % 1.98 C
1546 28-02-2019 08:45:00 3.6 C 92 % 2.42 C
1547 28-02-2019 08:50:00 3.7 C 91 % 2.37 C
1548 28-02-2019 08:55:00 3.9 C 91 % 2.57 C
1549 28-02-2019 09:00:00 4.1 C 91 % 2.77 C
1550 28-02-2019 09:05:00 4.2 C 90 % 2.71 C
Sensor: Nr:Datum:Temp:Feuchte:Taupunkt:
Aussen-T/F 1551 28-02-2019 09:10:00 4.3 C 90 % 2.81 C
1552 28-02-2019 09:15:00 4.4 C 89 % 2.75 C
1553 28-02-2019 09:20:00 4.5 C 89 % 2.85 C
1554 28-02-2019 09:25:00 4.6 C 89 % 2.95 C
1555 28-02-2019 09:30:00 4.7 C 89 % 3.05 C
1556 28-02-2019 09:35:00 4.8 C 88 % 2.99 C
1557 28-02-2019 09:40:00 4.9 C 88 % 3.08 C
1558 28-02-2019 09:45:00 5.1 C 88 % 3.28 C
1559 28-02-2019 09:50:00 5.2 C 88 % 3.38 C
1560 28-02-2019 09:55:00 5.4 C 89 % 3.74 C
1561 28-02-2019 10:00:00 5.6 C 89 % 3.93 C
1562 28-02-2019 10:05:00 5.8 C 89 % 4.13 C
1563 28-02-2019 10:10:00 6.3 C 88 % 4.46 C
1564 28-02-2019 10:15:00 6.7 C 88 % 4.86 C
1565 28-02-2019 10:20:00 7.1 C 86 % 4.92 C
1566 28-02-2019 10:25:00 7.5 C 85 % 5.15 C
1567 28-02-2019 10:30:00 7.9 C 84 % 5.37 C
1568 28-02-2019 10:35:00 8.4 C 83 % 5.69 C
1569 28-02-2019 10:40:00 8.7 C 82 % 5.8 C
1570 28-02-2019 10:45:00 9 C 81 % 5.92 C
1571 28-02-2019 10:50:00 9.3 C 80 % 6.03 C
1572 28-02-2019 10:55:00 9.6 C 79 % 6.14 C
1573 28-02-2019 11:00:00 9.9 C 78 % 6.25 C
1574 28-02-2019 11:05:00 10.2 C 77 % 6.35 C
1575 28-02-2019 11:10:00 10.6 C 76 % 6.55 C
Sensor: Nr:Datum:Temp:Feuchte:Taupunkt:
Aussen-T/F 1576 28-02-2019 11:15:00 10.9 C 75 % 6.65 C
1577 28-02-2019 11:20:00 11.3 C 73 % 6.64 C
1578 28-02-2019 11:25:00 11.7 C 72 % 6.83 C
1579 28-02-2019 11:30:00 11.9 C 71 % 6.82 C
1580 28-02-2019 11:35:00 12.2 C 70 % 6.9 C
1581 28-02-2019 11:40:00 12.4 C 69 % 6.88 C
1582 28-02-2019 11:45:00 12.5 C 69 % 6.97 C
1583 28-02-2019 11:50:00 12.6 C 69 % 7.07 C
1584 28-02-2019 11:55:00 12.6 C 69 % 7.07 C
1585 28-02-2019 12:00:00 12.7 C 68 % 6.95 C
1586 28-02-2019 12:05:00 12.8 C 69 % 7.26 C
1587 28-02-2019 12:10:00 12.8 C 68 % 7.05 C
1588 28-02-2019 12:15:00 12.9 C 68 % 7.14 C
1589 28-02-2019 12:20:00 13 C 68 % 7.24 C
1590 28-02-2019 12:25:00 13.1 C 67 % 7.12 C
1591 28-02-2019 12:30:00 13.2 C 67 % 7.21 C
1592 28-02-2019 12:35:00 13.4 C 68 % 7.62 C
1593 28-02-2019 12:40:00 13.7 C 66 % 7.47 C
1594 28-02-2019 12:45:00 13.8 C 66 % 7.57 C
1595 28-02-2019 12:50:00 13.9 C 66 % 7.66 C
1596 28-02-2019 12:55:00 13.9 C 66 % 7.66 C
1597 28-02-2019 13:00:00 14.1 C 66 % 7.85 C
1598 28-02-2019 13:05:00 14.2 C 65 % 7.72 C
1599 28-02-2019 13:10:00 14.3 C 66 % 8.04 C
1600 28-02-2019 13:15:00 14.5 C 64 % 7.78 C
Sensor: Nr:Datum:Temp:Feuchte:Taupunkt:
Aussen-T/F 1601 28-02-2019 13:20:00 14.7 C 65 % 8.2 C
1602 28-02-2019 13:25:00 14.9 C 63 % 7.93 C
1603 28-02-2019 13:30:00 15.1 C 64 % 8.35 C
1604 28-02-2019 13:35:00 15.2 C 63 % 8.21 C
1605 28-02-2019 13:40:00 15.4 C 62 % 8.16 C
1606 28-02-2019 13:45:00 15.6 C 62 % 8.35 C
1607 28-02-2019 13:50:00 15.7 C 61 % 8.21 C
1608 28-02-2019 13:55:00 15.8 C 61 % 8.3 C
1609 28-02-2019 14:00:00 16 C 62 % 8.73 C
1610 28-02-2019 14:05:00 16.2 C 61 % 8.68 C
1611 28-02-2019 14:10:00 16.3 C 61 % 8.77 C
1612 28-02-2019 14:15:00 16.4 C 61 % 8.87 C
1613 28-02-2019 14:20:00 16.4 C 61 % 8.87 C
1614 28-02-2019 14:25:00 16.5 C 61 % 8.96 C
1615 28-02-2019 14:30:00 16.6 C 61 % 9.06 C
1616 28-02-2019 14:35:00 16.7 C 61 % 9.15 C
1617 28-02-2019 14:40:00 16.8 C 61 % 9.24 C
1618 28-02-2019 14:45:00 17.1 C 60 % 9.28 C
1619 28-02-2019 14:50:00 17.2 C 60 % 9.37 C
1620 28-02-2019 14:55:00 17.2 C 60 % 9.37 C
1621 28-02-2019 15:00:00 17.2 C 60 % 9.37 C
1622 28-02-2019 15:05:00 17.1 C 60 % 9.28 C
1623 28-02-2019 15:10:00 17 C 62 % 9.67 C
1624 28-02-2019 15:15:00 17 C 61 % 9.43 C
1625 28-02-2019 15:20:00 16.9 C 61 % 9.34 C
Sensor: Nr:Datum:Temp:Feuchte:Taupunkt:
Aussen-T/F 1626 28-02-2019 15:25:00 16.8 C 62 % 9.49 C
1627 28-02-2019 15:30:00 16.8 C 62 % 9.49 C
1628 28-02-2019 15:35:00 16.7 C 62 % 9.39 C
1629 28-02-2019 15:40:00 16.7 C 60 % 8.9 C
1630 28-02-2019 15:45:00 16.5 C 60 % 8.72 C
1631 28-02-2019 15:50:00 16.3 C 61 % 8.77 C
1632 28-02-2019 15:55:00 16.2 C 61 % 8.68 C
1633 28-02-2019 16:00:00 16.2 C 62 % 8.92 C
1634 28-02-2019 16:05:00 16.2 C 64 % 9.39 C
1635 28-02-2019 16:10:00 16.1 C 65 % 9.53 C
1636 28-02-2019 16:15:00 16 C 66 % 9.66 C
1637 28-02-2019 16:20:00 15.9 C 66 % 9.56 C
1638 28-02-2019 16:25:00 15.7 C 66 % 9.37 C
1639 28-02-2019 16:30:00 15.5 C 67 % 9.41 C
1640 28-02-2019 16:35:00 15.3 C 63 % 8.31 C
1641 28-02-2019 16:40:00 14.7 C 60 % 7.03 C
1642 28-02-2019 16:45:00 14 C 61 % 6.61 C
1643 28-02-2019 16:50:00 13.6 C 63 % 6.7 C
1644 28-02-2019 16:55:00 13.3 C 64 % 6.64 C
1645 28-02-2019 17:00:00 13.1 C 64 % 6.45 C
1646 28-02-2019 17:05:00 13 C 65 % 6.58 C
1647 28-02-2019 17:10:00 12.9 C 66 % 6.71 C
1648 28-02-2019 17:15:00 12.9 C 67 % 6.93 C
1649 28-02-2019 17:20:00 12.8 C 67 % 6.83 C
1650 28-02-2019 17:25:00 12.8 C 68 % 7.05 C
Sensor: Nr:Datum:Temp:Feuchte:Taupunkt:
Aussen-T/F 1651 28-02-2019 17:30:00 12.7 C 69 % 7.17 C
1652 28-02-2019 17:35:00 12.6 C 69 % 7.07 C
1653 28-02-2019 17:40:00 12.6 C 69 % 7.07 C
1654 28-02-2019 17:45:00 12.5 C 69 % 6.97 C
1655 28-02-2019 17:50:00 12.5 C 70 % 7.18 C
1656 28-02-2019 17:55:00 12.4 C 70 % 7.09 C
1657 28-02-2019 18:00:00 12.4 C 70 % 7.09 C
1658 28-02-2019 18:05:00 12.4 C 70 % 7.09 C
1659 28-02-2019 18:10:00 12.3 C 71 % 7.2 C
1660 28-02-2019 18:15:00 12.3 C 71 % 7.2 C
1661 28-02-2019 18:20:00 12.2 C 71 % 7.1 C
1662 28-02-2019 18:25:00 12.2 C 71 % 7.1 C
1663 28-02-2019 18:30:00 12.1 C 71 % 7.01 C
1664 28-02-2019 18:35:00 12.1 C 72 % 7.21 C
1665 28-02-2019 18:40:00 12 C 72 % 7.12 C
1666 28-02-2019 18:45:00 11.9 C 73 % 7.22 C
1667 28-02-2019 18:50:00 11.9 C 73 % 7.22 C
1668 28-02-2019 18:55:00 11.8 C 73 % 7.12 C
1669 28-02-2019 19:00:00 11.8 C 74 % 7.32 C
1670 28-02-2019 19:05:00 11.7 C 74 % 7.23 C
1671 28-02-2019 19:10:00 11.6 C 74 % 7.13 C
1672 28-02-2019 19:15:00 11.4 C 75 % 7.13 C
1673 28-02-2019 19:20:00 11.3 C 75 % 7.04 C
1674 28-02-2019 19:25:00 11.2 C 75 % 6.94 C
1675 28-02-2019 19:30:00 11.1 C 76 % 7.04 C
Sensor: Nr:Datum:Temp:Feuchte:Taupunkt:
Aussen-T/F 1676 28-02-2019 19:35:00 11.1 C 76 % 7.04 C
1677 28-02-2019 19:40:00 11 C 77 % 7.13 C
1678 28-02-2019 19:45:00 11 C 77 % 7.13 C
1679 28-02-2019 19:50:00 11 C 77 % 7.13 C
1680 28-02-2019 19:55:00 11 C 78 % 7.32 C
1681 28-02-2019 20:00:00 11 C 78 % 7.32 C
1682 28-02-2019 20:05:00 11.1 C 78 % 7.41 C
1683 28-02-2019 20:10:00 11.1 C 78 % 7.41 C
1684 28-02-2019 20:15:00 11.1 C 78 % 7.41 C
1685 28-02-2019 20:20:00 11.1 C 78 % 7.41 C
1686 28-02-2019 20:25:00 11.1 C 79 % 7.6 C
1687 28-02-2019 20:30:00 11.1 C 79 % 7.6 C
1688 28-02-2019 20:35:00 11.1 C 79 % 7.6 C
1689 28-02-2019 20:40:00 11.1 C 79 % 7.6 C
1690 28-02-2019 20:45:00 11.1 C 79 % 7.6 C
1691 28-02-2019 20:50:00 11.1 C 79 % 7.6 C
1692 28-02-2019 20:55:00 11.1 C 79 % 7.6 C
1693 28-02-2019 21:00:00 11.1 C 80 % 7.79 C
1694 28-02-2019 21:05:00 11.1 C 80 % 7.79 C
1695 28-02-2019 21:10:00 11.1 C 81 % 7.97 C
1696 28-02-2019 21:15:00 11 C 81 % 7.87 C
1697 28-02-2019 21:20:00 10.9 C 81 % 7.77 C
1698 28-02-2019 21:25:00 10.9 C 81 % 7.77 C
1699 28-02-2019 21:30:00 10.9 C 81 % 7.77 C
1700 28-02-2019 21:35:00 10.9 C 81 % 7.77 C
Sensor: Nr:Datum:Temp:Feuchte:Taupunkt:
Aussen-T/F 1701 28-02-2019 21:40:00 10.9 C 81 % 7.77 C
1702 28-02-2019 21:45:00 10.9 C 81 % 7.77 C
1703 28-02-2019 21:50:00 11 C 81 % 7.87 C
1704 28-02-2019 21:55:00 11 C 80 % 7.69 C
1705 28-02-2019 22:00:00 10.9 C 80 % 7.59 C
1706 28-02-2019 22:05:00 10.9 C 81 % 7.77 C
1707 28-02-2019 22:10:00 10.9 C 81 % 7.77 C
1708 28-02-2019 22:15:00 10.9 C 81 % 7.77 C
1709 28-02-2019 22:20:00 10.9 C 82 % 7.95 C
1710 28-02-2019 22:25:00 10.9 C 82 % 7.95 C
1711 28-02-2019 22:30:00 10.8 C 82 % 7.85 C
1712 28-02-2019 22:35:00 10.8 C 82 % 7.85 C
1713 28-02-2019 22:40:00 10.8 C 82 % 7.85 C
1714 28-02-2019 22:45:00 10.8 C 82 % 7.85 C
1715 28-02-2019 22:50:00 10.8 C 83 % 8.03 C
1716 28-02-2019 22:55:00 10.7 C 83 % 7.93 C
1717 28-02-2019 23:00:00 10.7 C 83 % 7.93 C
1718 28-02-2019 23:05:00 10.7 C 83 % 7.93 C
1719 28-02-2019 23:10:00 10.7 C 84 % 8.11 C
1720 28-02-2019 23:15:00 10.6 C 85 % 8.19 C
1721 28-02-2019 23:20:00 10.6 C 85 % 8.19 C
1722 28-02-2019 23:25:00 10.4 C 86 % 8.16 C
1723 28-02-2019 23:30:00 10.3 C 87 % 8.23 C
1724 28-02-2019 23:35:00 10.2 C 88 % 8.3 C
1725 28-02-2019 23:40:00 9.9 C 89 % 8.17 C
Sensor: Nr:Datum:Temp:Feuchte:Taupunkt:
Aussen-T/F 1726 28-02-2019 23:45:00 9.8 C 89 % 8.08 C
1727 28-02-2019 23:50:00 9.7 C 90 % 8.14 C
1728 28-02-2019 23:55:00 9.6 C 90 % 8.04 C
1729 01-03-2019 00:00:00 9.5 C 91 % 8.11 C
1730 01-03-2019 00:05:00 9.4 C 91 % 8.01 C
1731 01-03-2019 00:10:00 9.3 C 92 % 8.07 C
1732 01-03-2019 00:15:00 9.3 C 92 % 8.07 C
1733 01-03-2019 00:20:00 9.2 C 92 % 7.97 C
1734 01-03-2019 00:25:00 9.1 C 92 % 7.87 C
1735 01-03-2019 00:30:00 9.1 C 92 % 7.87 C
1736 01-03-2019 00:35:00 9 C 92 % 7.77 C
1737 01-03-2019 00:40:00 8.9 C 92 % 7.67 C
1738 01-03-2019 00:45:00 8.8 C 92 % 7.57 C
1739 01-03-2019 00:50:00 8.7 C 92 % 7.47 C
1740 01-03-2019 00:55:00 8.6 C 93 % 7.53 C
1741 01-03-2019 01:00:00 8.6 C 93 % 7.53 C
1742 01-03-2019 01:05:00 8.7 C 93 % 7.63 C
1743 01-03-2019 01:10:00 8.8 C 94 % 7.89 C
1744 01-03-2019 01:15:00 8.8 C 94 % 7.89 C
1745 01-03-2019 01:20:00 8.8 C 94 % 7.89 C
1746 01-03-2019 01:25:00 8.7 C 94 % 7.79 C
1747 01-03-2019 01:30:00 8.7 C 94 % 7.79 C
1748 01-03-2019 01:35:00 8.7 C 94 % 7.79 C
1749 01-03-2019 01:40:00 8.6 C 93 % 7.53 C
1750 01-03-2019 01:45:00 8.6 C 94 % 7.69 C
Sensor: Nr:Datum:Temp:Feuchte:Taupunkt:
Aussen-T/F 1751 01-03-2019 01:50:00 8.6 C 94 % 7.69 C
1752 01-03-2019 01:55:00 8.6 C 94 % 7.69 C
1753 01-03-2019 02:00:00 8.6 C 94 % 7.69 C
1754 01-03-2019 02:05:00 8.6 C 94 % 7.69 C
1755 01-03-2019 02:10:00 8.7 C 94 % 7.79 C
1756 01-03-2019 02:15:00 8.7 C 94 % 7.79 C
1757 01-03-2019 02:20:00 8.7 C 93 % 7.63 C
1758 01-03-2019 02:25:00 8.7 C 93 % 7.63 C
1759 01-03-2019 02:30:00 8.8 C 93 % 7.73 C
1760 01-03-2019 02:35:00 8.7 C 93 % 7.63 C
1761 01-03-2019 02:40:00 8.7 C 93 % 7.63 C
1762 01-03-2019 02:45:00 8.7 C 93 % 7.63 C
1763 01-03-2019 02:50:00 8.7 C 93 % 7.63 C
1764 01-03-2019 02:55:00 8.7 C 93 % 7.63 C
1765 01-03-2019 03:00:00 8.7 C 92 % 7.47 C
1766 01-03-2019 03:05:00 8.8 C 92 % 7.57 C
1767 01-03-2019 03:10:00 8.7 C 92 % 7.47 C
1768 01-03-2019 03:15:00 8.7 C 92 % 7.47 C
1769 01-03-2019 03:20:00 8.8 C 92 % 7.57 C
1770 01-03-2019 03:25:00 8.8 C 92 % 7.57 C
1771 01-03-2019 03:30:00 8.8 C 91 % 7.41 C
1772 01-03-2019 03:35:00 8.9 C 91 % 7.51 C
1773 01-03-2019 03:40:00 8.9 C 91 % 7.51 C
1774 01-03-2019 03:45:00 8.9 C 91 % 7.51 C
1775 01-03-2019 03:50:00 8.8 C 91 % 7.41 C
Sensor: Nr:Datum:Temp:Feuchte:Taupunkt:
Aussen-T/F 1776 01-03-2019 03:55:00 8.8 C 91 % 7.41 C
1777 01-03-2019 04:00:00 8.8 C 91 % 7.41 C
1778 01-03-2019 04:05:00 8.8 C 91 % 7.41 C
1779 01-03-2019 04:10:00 8.8 C 91 % 7.41 C
1780 01-03-2019 04:15:00 8.8 C 91 % 7.41 C
1781 01-03-2019 04:20:00 8.8 C 91 % 7.41 C
1782 01-03-2019 04:25:00 8.8 C 91 % 7.41 C
1783 01-03-2019 04:30:00 8.8 C 91 % 7.41 C
1784 01-03-2019 04:35:00 8.7 C 91 % 7.32 C
1785 01-03-2019 04:40:00 8.7 C 91 % 7.32 C
1786 01-03-2019 04:45:00 8.7 C 91 % 7.32 C
1787 01-03-2019 04:50:00 8.7 C 91 % 7.32 C
1788 01-03-2019 04:55:00 8.7 C 91 % 7.32 C
1789 01-03-2019 05:00:00 8.7 C 91 % 7.32 C
1790 01-03-2019 05:05:00 8.7 C 91 % 7.32 C
1791 01-03-2019 05:10:00 8.7 C 91 % 7.32 C
1792 01-03-2019 05:15:00 8.7 C 91 % 7.32 C
1793 01-03-2019 05:20:00 8.7 C 91 % 7.32 C
1794 01-03-2019 05:25:00 8.7 C 92 % 7.47 C
1795 01-03-2019 05:30:00 8.7 C 92 % 7.47 C
1796 01-03-2019 05:35:00 8.6 C 92 % 7.38 C
1797 01-03-2019 05:40:00 8.6 C 92 % 7.38 C
1798 01-03-2019 05:45:00 8.5 C 92 % 7.28 C
1799 01-03-2019 05:50:00 8.5 C 93 % 7.43 C
1800 01-03-2019 05:55:00 8.5 C 93 % 7.43 C
Sensor: Nr:Datum:Temp:Feuchte:Taupunkt:
Aussen-T/F 1801 01-03-2019 06:00:00 8.4 C 93 % 7.34 C
1802 01-03-2019 06:05:00 8.4 C 93 % 7.34 C
1803 01-03-2019 06:10:00 8.4 C 93 % 7.34 C
1804 01-03-2019 06:15:00 8.3 C 94 % 7.39 C
1805 01-03-2019 06:20:00 8.3 C 93 % 7.24 C
1806 01-03-2019 06:25:00 8.2 C 93 % 7.14 C
1807 01-03-2019 06:30:00 8.2 C 94 % 7.29 C
1808 01-03-2019 06:35:00 8.1 C 94 % 7.19 C
1809 01-03-2019 06:40:00 8.1 C 94 % 7.19 C
1810 01-03-2019 06:45:00 8.1 C 94 % 7.19 C
1811 01-03-2019 06:50:00 8 C 94 % 7.09 C
1812 01-03-2019 06:55:00 8 C 94 % 7.09 C
1813 01-03-2019 07:00:00 8 C 94 % 7.09 C
1814 01-03-2019 07:05:00 8.1 C 95 % 7.35 C
1815 01-03-2019 07:10:00 8.1 C 95 % 7.35 C
1816 01-03-2019 07:15:00 8.2 C 95 % 7.45 C
1817 01-03-2019 07:20:00 8.2 C 95 % 7.45 C
1818 01-03-2019 07:25:00 8.2 C 95 % 7.45 C
1819 01-03-2019 07:30:00 8.3 C 95 % 7.55 C
1820 01-03-2019 07:35:00 8.3 C 95 % 7.55 C
1821 01-03-2019 07:40:00 8.3 C 95 % 7.55 C
1822 01-03-2019 07:45:00 8.3 C 95 % 7.55 C
1823 01-03-2019 07:50:00 8.3 C 95 % 7.55 C
1824 01-03-2019 07:55:00 8.3 C 95 % 7.55 C
1825 01-03-2019 08:00:00 8.3 C 95 % 7.55 C
Sensor: Nr:Datum:Temp:Feuchte:Taupunkt:
Aussen-T/F 1826 01-03-2019 08:05:00 8.3 C 95 % 7.55 C
1827 01-03-2019 08:10:00 8.4 C 95 % 7.65 C
1828 01-03-2019 08:15:00 8.4 C 95 % 7.65 C
1829 01-03-2019 08:20:00 8.5 C 95 % 7.75 C
1830 01-03-2019 08:25:00 8.6 C 95 % 7.85 C
1831 01-03-2019 08:30:00 8.6 C 95 % 7.85 C
1832 01-03-2019 08:35:00 8.6 C 95 % 7.85 C
1833 01-03-2019 08:40:00 8.6 C 95 % 7.85 C
1834 01-03-2019 08:45:00 8.7 C 95 % 7.94 C
1835 01-03-2019 08:50:00 8.7 C 95 % 7.94 C
1836 01-03-2019 08:55:00 8.7 C 95 % 7.94 C
1837 01-03-2019 09:00:00 8.7 C 95 % 7.94 C
1838 01-03-2019 09:05:00 8.7 C 95 % 7.94 C
1839 01-03-2019 09:10:00 8.7 C 95 % 7.94 C
1840 01-03-2019 09:15:00 8.7 C 95 % 7.94 C
1841 01-03-2019 09:20:00 8.7 C 95 % 7.94 C
1842 01-03-2019 09:25:00 8.7 C 95 % 7.94 C
1843 01-03-2019 09:30:00 8.7 C 95 % 7.94 C
1844 01-03-2019 09:35:00 8.7 C 95 % 7.94 C
1845 01-03-2019 09:40:00 8.7 C 95 % 7.94 C
1846 01-03-2019 09:45:00 8.7 C 95 % 7.94 C
1847 01-03-2019 09:50:00 8.6 C 95 % 7.85 C
1848 01-03-2019 09:55:00 8.6 C 95 % 7.85 C
1849 01-03-2019 10:00:00 8.6 C 95 % 7.85 C
1850 01-03-2019 10:05:00 8.6 C 96 % 8 C
Sensor: Nr:Datum:Temp:Feuchte:Taupunkt:
Aussen-T/F 1851 01-03-2019 10:10:00 8.6 C 96 % 8 C
1852 01-03-2019 10:15:00 8.6 C 96 % 8 C
1853 01-03-2019 10:20:00 8.6 C 96 % 8 C
1854 01-03-2019 10:25:00 8.6 C 96 % 8 C
1855 01-03-2019 10:30:00 8.6 C 96 % 8 C
1856 01-03-2019 10:35:00 8.7 C 96 % 8.1 C
1857 01-03-2019 10:40:00 8.7 C 96 % 8.1 C
1858 01-03-2019 10:45:00 8.8 C 96 % 8.2 C
1859 01-03-2019 10:50:00 8.8 C 96 % 8.2 C
1860 01-03-2019 10:55:00 8.8 C 96 % 8.2 C
1861 01-03-2019 11:00:00 8.8 C 96 % 8.2 C
1862 01-03-2019 11:05:00 8.7 C 95 % 7.94 C
1863 01-03-2019 11:10:00 8.7 C 95 % 7.94 C
1864 01-03-2019 11:15:00 8.7 C 95 % 7.94 C
1865 01-03-2019 11:20:00 8.7 C 95 % 7.94 C
1866 01-03-2019 11:25:00 8.7 C 95 % 7.94 C
1867 01-03-2019 11:30:00 8.6 C 95 % 7.85 C
1868 01-03-2019 11:35:00 8.7 C 95 % 7.94 C
1869 01-03-2019 11:40:00 8.7 C 95 % 7.94 C
1870 01-03-2019 11:45:00 8.8 C 95 % 8.04 C
1871 01-03-2019 11:50:00 8.9 C 95 % 8.14 C
1872 01-03-2019 11:55:00 9.1 C 95 % 8.34 C
1873 01-03-2019 12:00:00 9.1 C 94 % 8.19 C
1874 01-03-2019 12:05:00 9.1 C 94 % 8.19 C
1875 01-03-2019 12:10:00 9.1 C 93 % 8.03 C
Sensor: Nr:Datum:Temp:Feuchte:Taupunkt:
Aussen-T/F 1876 01-03-2019 12:15:00 9.1 C 92 % 7.87 C
1877 01-03-2019 12:20:00 9.1 C 92 % 7.87 C
1878 01-03-2019 12:25:00 9.1 C 91 % 7.71 C
1879 01-03-2019 12:30:00 9 C 91 % 7.61 C
1880 01-03-2019 12:35:00 9.1 C 90 % 7.55 C
1881 01-03-2019 12:40:00 9 C 90 % 7.45 C
1882 01-03-2019 12:45:00 8.9 C 90 % 7.35 C
1883 01-03-2019 12:50:00 8.8 C 90 % 7.25 C
1884 01-03-2019 12:55:00 8.8 C 90 % 7.25 C
1885 01-03-2019 13:00:00 8.7 C 91 % 7.32 C
1886 01-03-2019 13:05:00 8.7 C 91 % 7.32 C
1887 01-03-2019 13:10:00 8.7 C 91 % 7.32 C
1888 01-03-2019 13:15:00 8.6 C 91 % 7.22 C
1889 01-03-2019 13:20:00 8.5 C 91 % 7.12 C
1890 01-03-2019 13:25:00 8.4 C 91 % 7.02 C
1891 01-03-2019 13:30:00 8.4 C 92 % 7.18 C
1892 01-03-2019 13:35:00 8.4 C 92 % 7.18 C
1893 01-03-2019 13:40:00 8.3 C 92 % 7.08 C
1894 01-03-2019 13:45:00 8.4 C 92 % 7.18 C
1895 01-03-2019 13:50:00 8.4 C 92 % 7.18 C
1896 01-03-2019 13:55:00 8.4 C 92 % 7.18 C
1897 01-03-2019 14:00:00 8.4 C 92 % 7.18 C
1898 01-03-2019 14:05:00 8.4 C 92 % 7.18 C
1899 01-03-2019 14:10:00 8.4 C 92 % 7.18 C
1900 01-03-2019 14:15:00 8.3 C 91 % 6.92 C
Sensor: Nr:Datum:Temp:Feuchte:Taupunkt:
Aussen-T/F 1901 01-03-2019 14:20:00 8.4 C 91 % 7.02 C
1902 01-03-2019 14:25:00 8.4 C 91 % 7.02 C
1903 01-03-2019 14:30:00 8.3 C 90 % 6.76 C
1904 01-03-2019 14:35:00 8.4 C 90 % 6.86 C
1905 01-03-2019 14:40:00 8.4 C 89 % 6.7 C
1906 01-03-2019 14:45:00 8.4 C 89 % 6.7 C
1907 01-03-2019 14:50:00 8.4 C 89 % 6.7 C
1908 01-03-2019 14:55:00 8.4 C 89 % 6.7 C
1909 01-03-2019 15:00:00 8.4 C 89 % 6.7 C
1910 01-03-2019 15:05:00 8.4 C 89 % 6.7 C
1911 01-03-2019 15:10:00 8.4 C 90 % 6.86 C
1912 01-03-2019 15:15:00 8.3 C 89 % 6.6 C
1913 01-03-2019 15:20:00 8.3 C 89 % 6.6 C
1914 01-03-2019 15:25:00 8.3 C 90 % 6.76 C
1915 01-03-2019 15:30:00 8.3 C 90 % 6.76 C
1916 01-03-2019 15:35:00 8.3 C 90 % 6.76 C
1917 01-03-2019 15:40:00 8.3 C 90 % 6.76 C
1918 01-03-2019 15:45:00 8.3 C 90 % 6.76 C
1919 01-03-2019 15:50:00 8.3 C 90 % 6.76 C
1920 01-03-2019 15:55:00 8.3 C 90 % 6.76 C
1921 01-03-2019 16:00:00 8.3 C 90 % 6.76 C
1922 01-03-2019 16:05:00 8.4 C 90 % 6.86 C
1923 01-03-2019 16:10:00 8.4 C 90 % 6.86 C
1924 01-03-2019 16:15:00 8.4 C 90 % 6.86 C
1925 01-03-2019 16:20:00 8.4 C 90 % 6.86 C
Sensor: Nr:Datum:Temp:Feuchte:Taupunkt:
Aussen-T/F 1926 01-03-2019 16:25:00 8.3 C 91 % 6.92 C
1927 01-03-2019 16:30:00 8.3 C 91 % 6.92 C
1928 01-03-2019 16:35:00 8.3 C 90 % 6.76 C
1929 01-03-2019 16:40:00 8.3 C 91 % 6.92 C
1930 01-03-2019 16:45:00 8.3 C 91 % 6.92 C
1931 01-03-2019 16:50:00 8.4 C 91 % 7.02 C
1932 01-03-2019 16:55:00 8.3 C 91 % 6.92 C
1933 01-03-2019 17:00:00 8.3 C 91 % 6.92 C
1934 01-03-2019 17:05:00 8.3 C 91 % 6.92 C
1935 01-03-2019 17:10:00 8.3 C 91 % 6.92 C
1936 01-03-2019 17:15:00 8.3 C 91 % 6.92 C
1937 01-03-2019 17:20:00 8.3 C 91 % 6.92 C
1938 01-03-2019 17:25:00 8.3 C 91 % 6.92 C
1939 01-03-2019 17:30:00 8.2 C 91 % 6.82 C
1940 01-03-2019 17:35:00 8.2 C 91 % 6.82 C
1941 01-03-2019 17:40:00 8.3 C 91 % 6.92 C
1942 01-03-2019 17:45:00 8.3 C 91 % 6.92 C
1943 01-03-2019 17:50:00 8.3 C 91 % 6.92 C
1944 01-03-2019 17:55:00 8.3 C 91 % 6.92 C
1945 01-03-2019 18:00:00 8.2 C 90 % 6.66 C
1946 01-03-2019 18:05:00 8 C 90 % 6.46 C
1947 01-03-2019 18:10:00 7.8 C 90 % 6.27 C
1948 01-03-2019 18:15:00 7.8 C 90 % 6.27 C
1949 01-03-2019 18:20:00 7.7 C 89 % 6 C
1950 01-03-2019 18:25:00 7.6 C 89 % 5.91 C
Sensor: Nr:Datum:Temp:Feuchte:Taupunkt:
Aussen-T/F 1951 01-03-2019 18:30:00 7.6 C 89 % 5.91 C
1952 01-03-2019 18:35:00 7.5 C 89 % 5.81 C
1953 01-03-2019 18:40:00 7.4 C 89 % 5.71 C
1954 01-03-2019 18:45:00 7.3 C 89 % 5.61 C
1955 01-03-2019 18:50:00 7.3 C 89 % 5.61 C
1956 01-03-2019 18:55:00 7.2 C 90 % 5.67 C
1957 01-03-2019 19:00:00 7.2 C 90 % 5.67 C
1958 01-03-2019 19:05:00 7.1 C 90 % 5.57 C
1959 01-03-2019 19:10:00 7.1 C 89 % 5.41 C
1960 01-03-2019 19:15:00 7 C 90 % 5.48 C
1961 01-03-2019 19:20:00 6.9 C 90 % 5.38 C
1962 01-03-2019 19:25:00 6.9 C 90 % 5.38 C
1963 01-03-2019 19:30:00 6.8 C 90 % 5.28 C
1964 01-03-2019 19:35:00 6.8 C 90 % 5.28 C
1965 01-03-2019 19:40:00 6.8 C 90 % 5.28 C
1966 01-03-2019 19:45:00 6.8 C 90 % 5.28 C
1967 01-03-2019 19:50:00 6.7 C 90 % 5.18 C
1968 01-03-2019 19:55:00 6.7 C 90 % 5.18 C
1969 01-03-2019 20:00:00 6.7 C 91 % 5.34 C
1970 01-03-2019 20:05:00 6.7 C 91 % 5.34 C
1971 01-03-2019 20:10:00 6.7 C 91 % 5.34 C
1972 01-03-2019 20:15:00 6.7 C 91 % 5.34 C
1973 01-03-2019 20:20:00 6.6 C 91 % 5.24 C
1974 01-03-2019 20:25:00 6.6 C 91 % 5.24 C
1975 01-03-2019 20:30:00 6.6 C 91 % 5.24 C
Sensor: Nr:Datum:Temp:Feuchte:Taupunkt:
Aussen-T/F 1976 01-03-2019 20:35:00 6.6 C 91 % 5.24 C
1977 01-03-2019 20:40:00 6.6 C 91 % 5.24 C
1978 01-03-2019 20:45:00 6.6 C 91 % 5.24 C
1979 01-03-2019 20:50:00 6.6 C 91 % 5.24 C
1980 01-03-2019 20:55:00 6.5 C 91 % 5.14 C
1981 01-03-2019 21:00:00 6.5 C 91 % 5.14 C
1982 01-03-2019 21:05:00 6.5 C 91 % 5.14 C
1983 01-03-2019 21:10:00 6.4 C 91 % 5.04 C
1984 01-03-2019 21:15:00 6.4 C 91 % 5.04 C
1985 01-03-2019 21:20:00 6.4 C 91 % 5.04 C
1986 01-03-2019 21:25:00 6.4 C 91 % 5.04 C
1987 01-03-2019 21:30:00 6.5 C 90 % 4.98 C
1988 01-03-2019 21:35:00 6.5 C 91 % 5.14 C
1989 01-03-2019 21:40:00 6.5 C 91 % 5.14 C
1990 01-03-2019 21:45:00 6.5 C 90 % 4.98 C
1991 01-03-2019 21:50:00 6.4 C 90 % 4.88 C
1992 01-03-2019 21:55:00 6.4 C 90 % 4.88 C
1993 01-03-2019 22:00:00 6.4 C 90 % 4.88 C
1994 01-03-2019 22:05:00 6.4 C 91 % 5.04 C
1995 01-03-2019 22:10:00 6.3 C 91 % 4.94 C
1996 01-03-2019 22:15:00 6.3 C 91 % 4.94 C
1997 01-03-2019 22:20:00 6.3 C 91 % 4.94 C
1998 01-03-2019 22:25:00 6.3 C 91 % 4.94 C
1999 01-03-2019 22:30:00 6.3 C 91 % 4.94 C
2000 01-03-2019 22:35:00 6.3 C 90 % 4.78 C
Sensor: Nr:Datum:Temp:Feuchte:Taupunkt:
Aussen-T/F 2001 01-03-2019 22:40:00 6.4 C 90 % 4.88 C
2002 01-03-2019 22:45:00 6.4 C 89 % 4.72 C
2003 01-03-2019 22:50:00 6.5 C 89 % 4.82 C
2004 01-03-2019 22:55:00 6.6 C 88 % 4.76 C
2005 01-03-2019 23:00:00 6.6 C 88 % 4.76 C
2006 01-03-2019 23:05:00 6.7 C 88 % 4.86 C
2007 01-03-2019 23:10:00 6.7 C 88 % 4.86 C
2008 01-03-2019 23:15:00 6.6 C 88 % 4.76 C
2009 01-03-2019 23:20:00 6.6 C 88 % 4.76 C
2010 01-03-2019 23:25:00 6.6 C 88 % 4.76 C
2011 01-03-2019 23:30:00 6.6 C 88 % 4.76 C
2012 01-03-2019 23:35:00 6.5 C 89 % 4.82 C
2013 01-03-2019 23:40:00 6.4 C 89 % 4.72 C
2014 01-03-2019 23:45:00 6.4 C 89 % 4.72 C
2015 01-03-2019 23:50:00 6.4 C 90 % 4.88 C
2016 01-03-2019 23:55:00 6.3 C 90 % 4.78 C

Legende:
   Min
   Max


Maximal/Minimal-Werte vom 23.02.2019 - 01.03.2019

Sensor Min Max Avg
Temp
(Aussen-T/F)
-2.4 °C
24-02-2019  07:20:00
17.9 °C
27-02-2019  14:10:00
6.23 °C
Feuchte
(Aussen-T/F)
34 %
24-02-2019  14:55:00
97 %
27-02-2019  10:15:00
79.49 %
Taupunkt
(Aussen-T/F)
-3.66 C
24-02-2019  07:20:00
9.67 C
28-02-2019  15:10:00
2.6 C

Die Daten stammen von einer Davis Vantage Pro 2 Wetter-Station und werden unter Linux mit der Software wview2wettercgi und aufbereitet. Alle Angaben erfolgen ohne Gewähr für ihre Vollständigkeit oder Richtigkeit.
Kontakt: Rainer Krienke krienke@uni-koblenz.de . Meine Webseiten an der Uni Koblenz oder privat.
Version: $Revision: 0.78 $